| time (UTC) | temp C | wind direction | speed KPH | gust KPH | rain 1hr cm | rain 24hr cm | rain mn cm | humidity % | barometer mb |
| 20260506060404 | 25 | 140 | 6.4 | 8.0 | 0.00 | 0.00 | 0.00 | 89 | 1003.5 |
| 20260506060304 | 25 | 154 | 6.4 | 8.0 | 0.00 | 0.00 | 0.00 | 89 | 1003.6 |
| 20260506060203 | 25 | 135 | 6.4 | 8.0 | 0.00 | 0.00 | 0.00 | 89 | 1003.6 |
| 20260506051404 | 25 | 157 | 3.2 | 8.0 | 0.00 | 0.00 | 0.00 | 89 | 1003.4 |
| 20260506051303 | 25 | 161 | 3.2 | 8.0 | 0.00 | 0.00 | 0.00 | 89 | 1003.4 |
| 20260506051202 | 25 | 164 | 3.2 | 8.0 | 0.00 | 0.00 | 0.00 | 89 | 1003.4 |
| 20260506051102 | 25 | 134 | 1.6 | 9.7 | 0.00 | 0.00 | 0.00 | 89 | 1003.4 |
| 20260506051003 | 25 | 137 | 3.2 | 11.3 | 0.00 | 0.00 | 0.00 | 89 | 1003.3 |
| 20260506050902 | 25 | 135 | 4.8 | 11.3 | 0.00 | 0.00 | 0.00 | 89 | 1003.3 |
| 20260506050803 | 25 | 135 | 4.8 | 11.3 | 0.00 | 0.00 | 0.00 | 89 | 1003.4 |
| 20260506050702 | 25 | 166 | 4.8 | 11.3 | 0.00 | 0.00 | 0.00 | 89 | 1003.5 |
| 20260506050602 | 25 | 142 | 3.2 | 11.3 | 0.00 | 0.00 | 0.00 | 89 | 1003.4 |
| 20260506050502 | 25 | 147 | 3.2 | 11.3 | 0.00 | 0.00 | 0.00 | 89 | 1003.4 |
| 20260506050405 | 25 | 158 | 4.8 | 11.3 | 0.00 | 0.00 | 0.00 | 89 | 1003.4 |
| 20260506050302 | 25 | 158 | 4.8 | 11.3 | 0.00 | 0.00 | 0.00 | 88 | 1003.3 |
| 20260506050202 | 25 | 111 | 4.8 | 11.3 | 0.00 | 0.00 | 0.00 | 88 | 1003.4 |
| 20260506050104 | 25 | 131 | 6.4 | 11.3 | 0.00 | 0.00 | 0.00 | 88 | 1003.5 |
| 20260506045102 | 25 | 140 | 4.8 | 11.3 | 0.00 | 0.00 | 0.00 | 88 | 1003.1 |
| 20260506045002 | 25 | 172 | 6.4 | 11.3 | 0.00 | 0.00 | 0.00 | 88 | 1003.1 |
| 20260506044902 | 25 | 165 | 6.4 | 9.7 | 0.00 | 0.00 | 0.00 | 88 | 1003.2 |
| 20260506044804 | 25 | 113 | 4.8 | 9.7 | 0.00 | 0.00 | 0.00 | 88 | 1003.1 |
| 20260506044703 | 25 | 135 | 4.8 | 9.7 | 0.00 | 0.00 | 0.00 | 88 | 1003.2 |
| 20260506044603 | 25 | 128 | 6.4 | 9.7 | 0.00 | 0.00 | 0.00 | 88 | 1003.2 |
| 20260506044503 | 25 | 142 | 6.4 | 9.7 | 0.00 | 0.00 | 0.00 | 87 | 1003.2 |
| 20260506044403 | 25 | 128 | 4.8 | 9.7 | 0.00 | 0.00 | 0.00 | 87 | 1003.2 |
| 20260506044303 | 25 | 118 | 4.8 | 6.4 | 0.00 | 0.00 | 0.00 | 87 | 1003.2 |
| 20260506044203 | 25 | 135 | 3.2 | 6.4 | 0.00 | 0.00 | 0.00 | 87 | 1003.3 |
| 20260506044102 | 25 | 159 | 3.2 | 8.0 | 0.00 | 0.00 | 0.00 | 87 | 1003.3 |
| 20260506044002 | 25 | 145 | 3.2 | 8.0 | 0.00 | 0.00 | 0.00 | 87 | 1003.3 |
| 20260506043902 | 25 | 142 | 3.2 | 8.0 | 0.00 | 0.00 | 0.00 | 87 | 1003.4 |
| 20260506043802 | 25 | 127 | 4.8 | 8.0 | 0.00 | 0.00 | 0.00 | 87 | 1003.3 |
| 20260506043703 | 25 | 114 | 4.8 | 8.0 | 0.00 | 0.00 | 0.00 | 87 | 1003.5 |
| 20260506043604 | 25 | 141 | 4.8 | 8.0 | 0.00 | 0.00 | 0.00 | 87 | 1003.5 |
| 20260506043503 | 25 | 142 | 4.8 | 9.7 | 0.00 | 0.00 | 0.00 | 87 | 1003.5 |
| 20260506043404 | 25 | 157 | 4.8 | 9.7 | 0.00 | 0.00 | 0.00 | 87 | 1003.5 |
| 20260506043303 | 25 | 154 | 4.8 | 9.7 | 0.00 | 0.00 | 0.00 | 87 | 1003.5 |
| 20260506043203 | 25 | 145 | 3.2 | 9.7 | 0.00 | 0.00 | 0.00 | 87 | 1003.5 |
| 20260506043101 | 25 | 123 | 3.2 | 9.7 | 0.00 | 0.00 | 0.00 | 87 | 1003.4 |
| 20260506043006 | 25 | 123 | 4.8 | 16.1 | 0.00 | 0.00 | 0.00 | 87 | 1003.4 |
| 20260506042904 | 25 | 124 | 4.8 | 16.1 | 0.00 | 0.00 | 0.00 | 87 | 1003.4 |
| 20260506042803 | 25 | 166 | 6.4 | 16.1 | 0.00 | 0.00 | 0.00 | 87 | 1003.4 |
| 20260506042704 | 25 | 152 | 6.4 | 16.1 | 0.00 | 0.00 | 0.00 | 87 | 1003.3 |
| 20260506042603 | 25 | 125 | 6.4 | 16.1 | 0.00 | 0.00 | 0.00 | 87 | 1003.4 |
| 20260506042502 | 25 | 169 | 4.8 | 16.1 | 0.00 | 0.00 | 0.00 | 87 | 1003.4 |
| 20260506042402 | 25 | 144 | 4.8 | 16.1 | 0.00 | 0.00 | 0.00 | 87 | 1003.4 |
| 20260506042305 | 25 | 179 | 4.8 | 16.1 | 0.00 | 0.00 | 0.00 | 87 | 1003.3 |
| 20260506042202 | 25 | 199 | 6.4 | 16.1 | 0.00 | 0.00 | 0.00 | 86 | 1003.4 |
| 20260506042103 | 25 | 162 | 8.0 | 16.1 | 0.00 | 0.00 | 0.00 | 86 | 1003.3 |
| 20260506042002 | 25 | 137 | 6.4 | 16.1 | 0.00 | 0.00 | 0.00 | 86 | 1003.3 |
| 20260506041905 | 25 | 135 | 4.8 | 16.1 | 0.00 | 0.00 | 0.00 | 86 | 1003.4 |
| 20260506041801 | 25 | 193 | 4.8 | 16.1 | 0.00 | 0.00 | 0.00 | 86 | 1003.4 |
| 20260506041702 | 25 | 154 | 4.8 | 16.1 | 0.00 | 0.00 | 0.00 | 86 | 1003.3 |
| 20260506041603 | 25 | 188 | 6.4 | 16.1 | 0.00 | 0.00 | 0.00 | 86 | 1003.3 |
| 20260506041506 | 25 | 121 | 6.4 | 16.1 | 0.00 | 0.00 | 0.00 | 86 | 1003.3 |
| 20260506041402 | 25 | 110 | 4.8 | 16.1 | 0.00 | 0.00 | 0.00 | 86 | 1003.3 |
| 20260506041302 | 25 | 151 | 3.2 | 16.1 | 0.00 | 0.00 | 0.00 | 86 | 1003.3 |
| 20260506041204 | 25 | 162 | 6.4 | 16.1 | 0.00 | 0.00 | 0.00 | 86 | 1003.3 |
| 20260506041102 | 25 | 128 | 8.0 | 16.1 | 0.00 | 0.00 | 0.00 | 86 | 1003.3 |
| 20260506041002 | 25 | 199 | 3.2 | 14.5 | 0.00 | 0.00 | 0.00 | 86 | 1003.3 |
| 20260506040903 | 25 | 111 | 4.8 | 14.5 | 0.00 | 0.00 | 0.00 | 86 | 1003.3 |
| 20260506040802 | 25 | 110 | 4.8 | 14.5 | 0.00 | 0.00 | 0.00 | 86 | 1003.2 |
| 20260506040704 | 25 | 151 | 4.8 | 14.5 | 0.00 | 0.00 | 0.00 | 86 | 1003.3 |
| 20260506040602 | 25 | 131 | 6.4 | 14.5 | 0.00 | 0.00 | 0.00 | 86 | 1003.2 |
| 20260506040504 | 25 | 155 | 6.4 | 14.5 | 0.00 | 0.00 | 0.00 | 86 | 1003.2 |
| 20260506040402 | 25 | 164 | 6.4 | 14.5 | 0.00 | 0.00 | 0.00 | 86 | 1003.1 |
| 20260506040303 | 25 | 152 | 3.2 | 14.5 | 0.00 | 0.00 | 0.00 | 85 | 1003.1 |
| 20260506040204 | 25 | 157 | 3.2 | 14.5 | 0.00 | 0.00 | 0.00 | 85 | 1003.1 |
| 20260506040005 | 25 | 193 | 6.4 | 14.5 | 0.00 | 0.00 | 0.00 | 85 | 1003.1 |
| 20260506035901 | 25 | 171 | 4.8 | 14.5 | 0.00 | 0.00 | 0.00 | 85 | 1003.0 |
| 20260506035802 | 25 | 166 | 3.2 | 14.5 | 0.00 | 0.00 | 0.00 | 85 | 1003.0 |
| 20260506035701 | 25 | 172 | 4.8 | 14.5 | 0.00 | 0.00 | 0.00 | 85 | 1003.0 |
| 20260506035602 | 25 | 164 | 8.0 | 14.5 | 0.00 | 0.00 | 0.00 | 85 | 1003.1 |
| 20260506035504 | 25 | 127 | 6.4 | 14.5 | 0.00 | 0.00 | 0.00 | 85 | 1003.1 |
| 20260506035404 | 25 | 131 | 4.8 | 11.3 | 0.00 | 0.00 | 0.00 | 85 | 1003.1 |
| 20260506035305 | 25 | 116 | 6.4 | 9.7 | 0.00 | 0.00 | 0.00 | 85 | 1003.1 |
| 20260506035204 | 25 | 188 | 6.4 | 9.7 | 0.00 | 0.00 | 0.00 | 85 | 1003.0 |
| 20260506035102 | 25 | 138 | 6.4 | 9.7 | 0.00 | 0.00 | 0.00 | 85 | 1003.0 |
| 20260506035002 | 25 | 142 | 6.4 | 9.7 | 0.00 | 0.00 | 0.00 | 85 | 1003.1 |
| 20260506034903 | 25 | 175 | 6.4 | 9.7 | 0.00 | 0.00 | 0.00 | 85 | 1003.1 |
| 20260506034802 | 25 | 169 | 6.4 | 11.3 | 0.00 | 0.00 | 0.00 | 85 | 1003.1 |
| 20260506034703 | 25 | 131 | 4.8 | 11.3 | 0.00 | 0.00 | 0.00 | 85 | 1003.1 |
| 20260506034603 | 25 | 213 | 6.4 | 11.3 | 0.00 | 0.00 | 0.00 | 85 | 1003.1 |
| 20260506034504 | 25 | 149 | 6.4 | 11.3 | 0.00 | 0.00 | 0.00 | 85 | 1003.2 |
| 20260506034402 | 25 | 128 | 6.4 | 11.3 | 0.00 | 0.00 | 0.00 | 85 | 1003.1 |
| 20260506034304 | 25 | 124 | 6.4 | 11.3 | 0.00 | 0.00 | 0.00 | 85 | 1003.2 |
| 20260506034202 | 25 | 128 | 6.4 | 11.3 | 0.00 | 0.00 | 0.00 | 85 | 1003.2 |
| 20260506034103 | 25 | 151 | 6.4 | 11.3 | 0.00 | 0.00 | 0.00 | 85 | 1003.1 |
| 20260506034002 | 25 | 135 | 6.4 | 11.3 | 0.00 | 0.00 | 0.00 | 85 | 1003.2 |
| 20260506033903 | 25 | 144 | 6.4 | 11.3 | 0.00 | 0.00 | 0.00 | 85 | 1003.2 |
| 20260506033803 | 25 | 137 | 4.8 | 9.7 | 0.00 | 0.00 | 0.00 | 85 | 1003.2 |
| 20260506033702 | 25 | 180 | 3.2 | 9.7 | 0.00 | 0.00 | 0.00 | 85 | 1003.1 |
| 20260506033603 | 25 | 182 | 3.2 | 9.7 | 0.00 | 0.00 | 0.00 | 85 | 1003.1 |
| 20260506033504 | 25 | 166 | 3.2 | 9.7 | 0.00 | 0.00 | 0.00 | 85 | 1003.1 |
| 20260506033404 | 25 | 135 | 3.2 | 9.7 | 0.00 | 0.00 | 0.00 | 85 | 1003.1 |
| 20260506033302 | 25 | 144 | 3.2 | 9.7 | 0.00 | 0.00 | 0.00 | 85 | 1003.1 |
| 20260506033202 | 25 | 165 | 4.8 | 9.7 | 0.00 | 0.00 | 0.00 | 85 | 1003.0 |
| 20260506033105 | 25 | 158 | 4.8 | 9.7 | 0.00 | 0.00 | 0.00 | 85 | 1003.0 |
| 20260506033003 | 25 | 138 | 4.8 | 9.7 | 0.00 | 0.00 | 0.00 | 85 | 1002.9 |
| 20260506032903 | 25 | 162 | 3.2 | 8.0 | 0.00 | 0.00 | 0.00 | 85 | 1002.9 |
| 20260506032803 | 25 | 161 | 3.2 | 9.7 | 0.00 | 0.00 | 0.00 | 85 | 1002.8 |
| 20260506032703 | 25 | 179 | 3.2 | 9.7 | 0.00 | 0.00 | 0.00 | 85 | 1002.8 |
| 20260506032602 | 25 | 176 | 3.2 | 9.7 | 0.00 | 0.00 | 0.00 | 85 | 1002.8 |
| 20260506032503 | 25 | 164 | 4.8 | 9.7 | 0.00 | 0.00 | 0.00 | 85 | 1002.8 |
| 20260506032404 | 25 | 172 | 4.8 | 14.5 | 0.00 | 0.00 | 0.00 | 85 | 1002.8 |
| 20260506032305 | 25 | 162 | 4.8 | 14.5 | 0.00 | 0.00 | 0.00 | 85 | 1002.7 |
| 20260506032203 | 25 | 135 | 6.4 | 14.5 | 0.00 | 0.00 | 0.00 | 85 | 1002.7 |
| 20260506032103 | 25 | 157 | 4.8 | 14.5 | 0.00 | 0.00 | 0.00 | 85 | 1002.6 |
| 20260506032003 | 25 | 158 | 4.8 | 16.1 | 0.00 | 0.00 | 0.00 | 85 | 1002.7 |
| 20260506031903 | 25 | 171 | 4.8 | 16.1 | 0.00 | 0.00 | 0.00 | 85 | 1002.6 |
| 20260506031803 | 25 | 135 | 4.8 | 16.1 | 0.00 | 0.00 | 0.00 | 85 | 1002.6 |
| 20260506031703 | 25 | 137 | 6.4 | 16.1 | 0.00 | 0.00 | 0.00 | 85 | 1002.5 |
| 20260506031603 | 25 | 190 | 8.0 | 16.1 | 0.00 | 0.00 | 0.00 | 85 | 1002.5 |
| 20260506031503 | 25 | 141 | 8.0 | 16.1 | 0.00 | 0.00 | 0.00 | 85 | 1002.6 |
| 20260506031403 | 25 | 188 | 6.4 | 16.1 | 0.00 | 0.00 | 0.00 | 85 | 1002.6 |
| 20260506031304 | 25 | 149 | 6.4 | 16.1 | 0.00 | 0.00 | 0.00 | 85 | 1002.5 |
| 20260506031202 | 25 | 197 | 8.0 | 16.1 | 0.00 | 0.00 | 0.00 | 85 | 1002.5 |
| 20260506031102 | 25 | 182 | 8.0 | 16.1 | 0.00 | 0.00 | 0.00 | 85 | 1002.4 |
| 20260506031004 | 25 | 137 | 8.0 | 16.1 | 0.00 | 0.00 | 0.00 | 85 | 1002.4 |
| 20260506030904 | 25 | 120 | 8.0 | 16.1 | 0.00 | 0.00 | 0.00 | 85 | 1002.3 |
| 20260506030801 | 25 | 189 | 8.0 | 16.1 | 0.00 | 0.00 | 0.00 | 85 | 1002.4 |
| 20260506030703 | 25 | 165 | 6.4 | 16.1 | 0.00 | 0.00 | 0.00 | 85 | 1002.3 |
| 20260506030603 | 25 | 130 | 4.8 | 16.1 | 0.00 | 0.00 | 0.00 | 85 | 1002.3 |
| 20260506030503 | 25 | 158 | 4.8 | 16.1 | 0.00 | 0.00 | 0.00 | 85 | 1002.3 |
| 20260506030402 | 25 | 147 | 8.0 | 16.1 | 0.00 | 0.00 | 0.00 | 84 | 1002.3 |
| 20260506030302 | 25 | 128 | 9.7 | 16.1 | 0.00 | 0.00 | 0.00 | 84 | 1002.3 |
| 20260506030203 | 25 | 154 | 8.0 | 16.1 | 0.00 | 0.00 | 0.00 | 85 | 1002.4 |
| 20260506030003 | 25 | 113 | 6.4 | 11.3 | 0.00 | 0.00 | 0.00 | 85 | 1002.4 |
| 20260506025903 | 25 | 178 | 6.4 | 11.3 | 0.00 | 0.00 | 0.00 | 85 | 1002.4 |
| 20260506025803 | 25 | 196 | 6.4 | 11.3 | 0.00 | 0.00 | 0.00 | 84 | 1002.4 |
| 20260506025703 | 25 | 149 | 6.4 | 11.3 | 0.00 | 0.00 | 0.00 | 84 | 1002.3 |
| 20260506025602 | 25 | 152 | 6.4 | 14.5 | 0.00 | 0.00 | 0.00 | 84 | 1002.4 |
| 20260506025505 | 25 | 158 | 4.8 | 14.5 | 0.00 | 0.00 | 0.00 | 84 | 1002.4 |
| 20260506025402 | 25 | 169 | 6.4 | 14.5 | 0.00 | 0.00 | 0.00 | 84 | 1002.4 |
| 20260506025305 | 25 | 157 | 8.0 | 14.5 | 0.00 | 0.00 | 0.00 | 84 | 1002.4 |
| 20260506025203 | 25 | 151 | 6.4 | 14.5 | 0.00 | 0.00 | 0.00 | 84 | 1002.5 |
| 20260506025103 | 25 | 137 | 6.4 | 19.3 | 0.00 | 0.00 | 0.00 | 84 | 1002.4 |
| 20260506025004 | 25 | 161 | 6.4 | 19.3 | 0.00 | 0.00 | 0.00 | 84 | 1002.3 |
| 20260506024903 | 25 | 162 | 8.0 | 19.3 | 0.00 | 0.00 | 0.00 | 84 | 1002.3 |
| 20260506024803 | 25 | 140 | 8.0 | 19.3 | 0.00 | 0.00 | 0.00 | 84 | 1002.4 |
| 20260506024703 | 25 | 111 | 6.4 | 19.3 | 0.00 | 0.00 | 0.00 | 84 | 1002.3 |
| 20260506024604 | 25 | 147 | 6.4 | 19.3 | 0.00 | 0.00 | 0.00 | 84 | 1002.4 |
| 20260506024503 | 25 | 147 | 9.7 | 19.3 | 0.00 | 0.00 | 0.00 | 84 | 1002.4 |
| 20260506024403 | 25 | 162 | 8.0 | 19.3 | 0.00 | 0.00 | 0.00 | 84 | 1002.4 |
| 20260506024304 | 25 | 173 | 8.0 | 19.3 | 0.00 | 0.00 | 0.00 | 84 | 1002.4 |
| 20260506024201 | 25 | 159 | 9.7 | 19.3 | 0.00 | 0.00 | 0.00 | 84 | 1002.3 |
| 20260506024105 | 25 | 118 | 8.0 | 16.1 | 0.00 | 0.00 | 0.00 | 84 | 1002.4 |
| 20260506024004 | 25 | 158 | 9.7 | 16.1 | 0.00 | 0.00 | 0.00 | 84 | 1002.4 |
| 20260506023902 | 25 | 151 | 8.0 | 16.1 | 0.00 | 0.00 | 0.00 | 84 | 1002.3 |
| 20260506023803 | 25 | 142 | 6.4 | 11.3 | 0.00 | 0.00 | 0.00 | 84 | 1002.3 |
| 20260506023702 | 25 | 164 | 6.4 | 11.3 | 0.00 | 0.00 | 0.00 | 84 | 1002.2 |
| 20260506023602 | 25 | 142 | 4.8 | 11.3 | 0.00 | 0.00 | 0.00 | 84 | 1002.2 |
| 20260506023502 | 25 | 145 | 3.2 | 11.3 | 0.00 | 0.00 | 0.00 | 84 | 1002.1 |
| 20260506023403 | 25 | 131 | 6.4 | 11.3 | 0.00 | 0.00 | 0.00 | 84 | 1002.1 |
| 20260506023303 | 26 | 168 | 8.0 | 11.3 | 0.00 | 0.00 | 0.00 | 84 | 1002.1 |
| 20260506023204 | 25 | 172 | 8.0 | 11.3 | 0.00 | 0.00 | 0.00 | 84 | 1002.1 |
| 20260506023102 | 26 | 148 | 8.0 | 11.3 | 0.00 | 0.00 | 0.00 | 84 | 1002.1 |
| 20260506023002 | 26 | 165 | 8.0 | 9.7 | 0.00 | 0.00 | 0.00 | 84 | 1002.1 |
| 20260506022903 | 26 | 148 | 6.4 | 9.7 | 0.00 | 0.00 | 0.00 | 83 | 1002.1 |
| 20260506022803 | 26 | 151 | 6.4 | 9.7 | 0.00 | 0.00 | 0.00 | 83 | 1002.1 |
| 20260506022702 | 26 | 151 | 8.0 | 14.5 | 0.00 | 0.00 | 0.00 | 83 | 1002.0 |
| 20260506022603 | 26 | 165 | 6.4 | 14.5 | 0.00 | 0.00 | 0.00 | 83 | 1002.1 |
| 20260506022502 | 26 | 148 | 6.4 | 14.5 | 0.00 | 0.00 | 0.00 | 83 | 1002.0 |
| 20260506022403 | 26 | 142 | 4.8 | 14.5 | 0.00 | 0.00 | 0.00 | 83 | 1002.0 |
| 20260506022305 | 26 | 162 | 4.8 | 14.5 | 0.00 | 0.00 | 0.00 | 83 | 1002.0 |
| 20260506022203 | 26 | 168 | 4.8 | 14.5 | 0.00 | 0.00 | 0.00 | 83 | 1001.9 |
| 20260506022104 | 26 | 158 | 4.8 | 14.5 | 0.00 | 0.00 | 0.00 | 83 | 1001.9 |
| 20260506022003 | 26 | 164 | 6.4 | 14.5 | 0.00 | 0.00 | 0.00 | 83 | 1001.9 |
| 20260506021902 | 26 | 189 | 8.0 | 14.5 | 0.00 | 0.00 | 0.00 | 83 | 1001.9 |
| 20260506021803 | 26 | 154 | 6.4 | 14.5 | 0.00 | 0.00 | 0.00 | 83 | 1001.9 |
| 20260506021702 | 26 | 155 | 4.8 | 14.5 | 0.00 | 0.00 | 0.00 | 83 | 1001.9 |
| 20260506021604 | 26 | 158 | 6.4 | 14.5 | 0.00 | 0.00 | 0.00 | 83 | 1001.9 |
| 20260506021504 | 26 | 164 | 6.4 | 14.5 | 0.00 | 0.00 | 0.00 | 83 | 1001.8 |
| 20260506021403 | 26 | 135 | 4.8 | 14.5 | 0.00 | 0.00 | 0.00 | 83 | 1001.9 |
| 20260506021302 | 26 | 144 | 6.4 | 14.5 | 0.00 | 0.00 | 0.00 | 83 | 1001.9 |
| 20260506021204 | 26 | 155 | 6.4 | 16.1 | 0.00 | 0.00 | 0.00 | 83 | 1001.9 |
| 20260506021103 | 26 | 127 | 8.0 | 16.1 | 0.00 | 0.00 | 0.00 | 83 | 1002.0 |
| 20260506021005 | 26 | 127 | 6.4 | 16.1 | 0.00 | 0.00 | 0.00 | 83 | 1001.9 |
| 20260506020904 | 26 | 166 | 4.8 | 16.1 | 0.00 | 0.00 | 0.00 | 83 | 1001.9 |
| 20260506020802 | 26 | 180 | 6.4 | 16.1 | 0.00 | 0.00 | 0.00 | 82 | 1001.9 |
| 20260506020703 | 26 | 159 | 8.0 | 16.1 | 0.00 | 0.00 | 0.00 | 82 | 1001.8 |
| 20260506020603 | 26 | 165 | 8.0 | 16.1 | 0.00 | 0.00 | 0.00 | 82 | 1001.9 |
| 20260506020504 | 26 | 141 | 8.0 | 16.1 | 0.00 | 0.00 | 0.00 | 82 | 1001.8 |
| 20260506020402 | 26 | 151 | 8.0 | 16.1 | 0.00 | 0.00 | 0.00 | 82 | 1001.8 |
| 20260506020302 | 26 | 121 | 9.7 | 16.1 | 0.00 | 0.00 | 0.00 | 82 | 1001.8 |
| 20260506020204 | 26 | 158 | 9.7 | 16.1 | 0.00 | 0.00 | 0.00 | 82 | 1001.8 |
| 20260506020003 | 26 | 151 | 4.8 | 11.3 | 0.00 | 0.00 | 0.00 | 82 | 1001.8 |
| 20260506015901 | 26 | 148 | 4.8 | 11.3 | 0.00 | 0.00 | 0.00 | 82 | 1001.8 |
| 20260506015802 | 26 | 214 | 4.8 | 11.3 | 0.00 | 0.00 | 0.00 | 82 | 1001.8 |
| 20260506015703 | 26 | 138 | 4.8 | 11.3 | 0.00 | 0.00 | 0.00 | 82 | 1001.8 |
| 20260506015602 | 26 | 165 | 6.4 | 11.3 | 0.00 | 0.00 | 0.00 | 82 | 1001.8 |
| 20260506015504 | 26 | 151 | 4.8 | 11.3 | 0.00 | 0.00 | 0.00 | 82 | 1001.7 |
| 20260506015403 | 26 | 144 | 6.4 | 11.3 | 0.00 | 0.00 | 0.00 | 82 | 1001.8 |
| 20260506015305 | 26 | 148 | 6.4 | 11.3 | 0.00 | 0.00 | 0.00 | 82 | 1001.7 |
| 20260506015204 | 26 | 183 | 6.4 | 16.1 | 0.00 | 0.00 | 0.00 | 82 | 1001.7 |
| 20260506015103 | 26 | 138 | 6.4 | 16.1 | 0.00 | 0.00 | 0.00 | 82 | 1001.8 |
| 20260506015004 | 26 | 168 | 6.4 | 16.1 | 0.00 | 0.00 | 0.00 | 82 | 1001.7 |
| 20260506014902 | 26 | 155 | 6.4 | 16.1 | 0.00 | 0.00 | 0.00 | 82 | 1001.8 |
| 20260506014802 | 26 | 161 | 6.4 | 16.1 | 0.00 | 0.00 | 0.00 | 82 | 1001.7 |
| 20260506014703 | 26 | 159 | 4.8 | 16.1 | 0.00 | 0.00 | 0.00 | 82 | 1001.7 |
| 20260506014603 | 26 | 134 | 4.8 | 16.1 | 0.00 | 0.00 | 0.00 | 82 | 1001.6 |
| 20260506014502 | 26 | 152 | 4.8 | 16.1 | 0.00 | 0.00 | 0.00 | 82 | 1001.7 |
| 20260506014402 | 26 | 148 | 6.4 | 16.1 | 0.00 | 0.00 | 0.00 | 82 | 1001.7 |
| 20260506014303 | 26 | 135 | 8.0 | 14.5 | 0.00 | 0.00 | 0.00 | 81 | 1001.6 |
| 20260506014201 | 26 | 169 | 9.7 | 14.5 | 0.00 | 0.00 | 0.00 | 81 | 1001.6 |
| 20260506014103 | 26 | 151 | 8.0 | 14.5 | 0.00 | 0.00 | 0.00 | 81 | 1001.7 |
| 20260506014003 | 26 | 123 | 8.0 | 14.5 | 0.00 | 0.00 | 0.00 | 81 | 1001.5 |
| 20260506013903 | 26 | 134 | 6.4 | 14.5 | 0.00 | 0.00 | 0.00 | 81 | 1001.5 |
| 20260506013803 | 26 | 158 | 6.4 | 14.5 | 0.00 | 0.00 | 0.00 | 81 | 1001.5 |
| 20260506013703 | 26 | 118 | 4.8 | 11.3 | 0.00 | 0.00 | 0.00 | 81 | 1001.5 |
| 20260506013603 | 26 | 145 | 3.2 | 11.3 | 0.00 | 0.00 | 0.00 | 81 | 1001.5 |
| 20260506013503 | 26 | 159 | 4.8 | 11.3 | 0.00 | 0.00 | 0.00 | 81 | 1001.5 |
| 20260506013403 | 26 | 149 | 6.4 | 11.3 | 0.00 | 0.00 | 0.00 | 81 | 1001.4 |
| 20260506013303 | 26 | 159 | 6.4 | 11.3 | 0.00 | 0.00 | 0.00 | 81 | 1001.5 |
| 20260506013202 | 26 | 149 | 6.4 | 11.3 | 0.00 | 0.00 | 0.00 | 81 | 1001.4 |
| 20260506013102 | 26 | 147 | 6.4 | 11.3 | 0.00 | 0.00 | 0.00 | 81 | 1001.4 |
| 20260506013004 | 26 | 120 | 6.4 | 17.7 | 0.00 | 0.00 | 0.00 | 81 | 1001.4 |
| 20260506012903 | 26 | 142 | 4.8 | 17.7 | 0.00 | 0.00 | 0.00 | 81 | 1001.5 |
| 20260506012803 | 26 | 149 | 6.4 | 17.7 | 0.00 | 0.00 | 0.00 | 81 | 1001.5 |
| 20260506012702 | 26 | 135 | 6.4 | 17.7 | 0.00 | 0.00 | 0.00 | 81 | 1001.5 |
| 20260506012603 | 26 | 144 | 6.4 | 17.7 | 0.00 | 0.00 | 0.00 | 80 | 1001.4 |
| 20260506012504 | 26 | 142 | 4.8 | 17.7 | 0.00 | 0.00 | 0.00 | 80 | 1001.4 |
| 20260506012403 | 26 | 138 | 3.2 | 17.7 | 0.00 | 0.00 | 0.00 | 80 | 1001.4 |
| 20260506012307 | 26 | 161 | 4.8 | 17.7 | 0.00 | 0.00 | 0.00 | 80 | 1001.4 |
| 20260506012202 | 26 | 165 | 8.0 | 17.7 | 0.00 | 0.00 | 0.00 | 80 | 1001.2 |
| 20260506012104 | 26 | 152 | 9.7 | 17.7 | 0.00 | 0.00 | 0.00 | 80 | 1001.2 |
| 20260506012003 | 26 | 144 | 8.0 | 14.5 | 0.00 | 0.00 | 0.00 | 80 | 1001.2 |
| 20260506011903 | 26 | 147 | 6.4 | 9.7 | 0.00 | 0.00 | 0.00 | 80 | 1001.1 |
| 20260506011802 | 26 | 176 | 4.8 | 14.5 | 0.00 | 0.00 | 0.00 | 80 | 1001.1 |
| 20260506011704 | 26 | 202 | 4.8 | 16.1 | 0.00 | 0.00 | 0.00 | 80 | 1001.1 |
| 20260506011603 | 26 | 180 | 4.8 | 16.1 | 0.00 | 0.00 | 0.00 | 80 | 1001.1 |
| 20260506011502 | 26 | 142 | 4.8 | 16.1 | 0.00 | 0.00 | 0.00 | 80 | 1001.1 |
| 20260506011403 | 26 | 161 | 3.2 | 16.1 | 0.00 | 0.00 | 0.00 | 80 | 1001.1 |
| 20260506011303 | 26 | 161 | 3.2 | 16.1 | 0.00 | 0.00 | 0.00 | 80 | 1001.0 |
| 20260506011203 | 26 | 149 | 3.2 | 16.1 | 0.00 | 0.00 | 0.00 | 79 | 1001.1 |
| 20260506011105 | 26 | 131 | 3.2 | 16.1 | 0.00 | 0.00 | 0.00 | 79 | 1001.0 |
| 20260506011003 | 26 | 140 | 6.4 | 16.1 | 0.00 | 0.00 | 0.00 | 79 | 1001.0 |
| 20260506010903 | 26 | 173 | 8.0 | 16.1 | 0.00 | 0.00 | 0.00 | 79 | 1000.9 |
| 20260506010802 | 26 | 145 | 6.4 | 16.1 | 0.00 | 0.00 | 0.00 | 79 | 1001.0 |
| 20260506010704 | 26 | 148 | 4.8 | 14.5 | 0.00 | 0.00 | 0.00 | 79 | 1001.0 |
| 20260506010603 | 26 | 165 | 4.8 | 17.7 | 0.00 | 0.00 | 0.00 | 79 | 1001.0 |
| 20260506010501 | 26 | 193 | 6.4 | 17.7 | 0.00 | 0.00 | 0.00 | 79 | 1001.0 |
| 20260506010403 | 26 | 166 | 4.8 | 17.7 | 0.00 | 0.00 | 0.00 | 79 | 1000.9 |
| 20260506010303 | 26 | 166 | 4.8 | 17.7 | 0.00 | 0.00 | 0.00 | 79 | 1001.0 |
| 20260506010204 | 26 | 133 | 4.8 | 17.7 | 0.00 | 0.00 | 0.00 | 79 | 1000.9 |
| 20260506010004 | 26 | 152 | 6.4 | 17.7 | 0.00 | 0.00 | 0.00 | 79 | 1000.9 |
| 20260506005903 | 26 | 199 | 4.8 | 17.7 | 0.00 | 0.00 | 0.00 | 79 | 1000.9 |
| 20260506005802 | 26 | 164 | 6.4 | 17.7 | 0.00 | 0.00 | 0.00 | 79 | 1000.9 |
| 20260506005702 | 26 | 172 | 6.4 | 17.7 | 0.00 | 0.00 | 0.00 | 79 | 1000.9 |
| 20260506005604 | 26 | 164 | 6.4 | 14.5 | 0.00 | 0.00 | 0.00 | 79 | 1000.9 |
| 20260506005504 | 26 | 148 | 6.4 | 14.5 | 0.00 | 0.00 | 0.00 | 79 | 1000.9 |
| 20260506005404 | 26 | 157 | 6.4 | 14.5 | 0.00 | 0.00 | 0.00 | 79 | 1000.9 |
| 20260506005305 | 26 | 165 | 8.0 | 14.5 | 0.00 | 0.00 | 0.00 | 79 | 1000.9 |
| 20260506005203 | 26 | 182 | 9.7 | 14.5 | 0.00 | 0.00 | 0.00 | 79 | 1000.9 |
| 20260506005104 | 26 | 196 | 6.4 | 14.5 | 0.00 | 0.00 | 0.00 | 79 | 1000.9 |
| 20260506005004 | 26 | 233 | 6.4 | 14.5 | 0.00 | 0.00 | 0.00 | 79 | 1000.9 |
| 20260506004903 | 26 | 152 | 4.8 | 14.5 | 0.00 | 0.00 | 0.00 | 79 | 1000.9 |
| 20260506004805 | 26 | 157 | 6.4 | 14.5 | 0.00 | 0.00 | 0.00 | 79 | 1000.9 |
| 20260506004705 | 26 | 176 | 6.4 | 14.5 | 0.00 | 0.00 | 0.00 | 79 | 1000.8 |
| 20260506004604 | 26 | 152 | 8.0 | 14.5 | 0.00 | 0.00 | 0.00 | 79 | 1000.8 |
| 20260506004504 | 26 | 169 | 8.0 | 14.5 | 0.00 | 0.00 | 0.00 | 79 | 1000.8 |
| 20260506004402 | 26 | 121 | 6.4 | 14.5 | 0.00 | 0.00 | 0.00 | 79 | 1000.9 |
| 20260506004304 | 26 | 161 | 4.8 | 16.1 | 0.00 | 0.00 | 0.00 | 79 | 1000.9 |
| 20260506004203 | 26 | 138 | 3.2 | 16.1 | 0.00 | 0.00 | 0.00 | 79 | 1000.8 |
| 20260506004102 | 26 | 152 | 3.2 | 16.1 | 0.00 | 0.00 | 0.00 | 79 | 1000.8 |
| 20260506004004 | 26 | 144 | 4.8 | 16.1 | 0.00 | 0.00 | 0.00 | 79 | 1000.9 |
| 20260506003903 | 26 | 159 | 6.4 | 16.1 | 0.00 | 0.00 | 0.00 | 79 | 1000.8 |
| 20260506003802 | 26 | 188 | 6.4 | 16.1 | 0.00 | 0.00 | 0.00 | 79 | 1000.8 |
| 20260506003703 | 26 | 141 | 8.0 | 16.1 | 0.00 | 0.00 | 0.00 | 78 | 1000.9 |
| 20260506003604 | 26 | 137 | 6.4 | 16.1 | 0.00 | 0.00 | 0.00 | 78 | 1000.8 |
| 20260506003503 | 26 | 158 | 6.4 | 16.1 | 0.00 | 0.00 | 0.00 | 79 | 1000.9 |
| 20260506003402 | 26 | 173 | 8.0 | 16.1 | 0.00 | 0.00 | 0.00 | 79 | 1000.9 |
| 20260506003303 | 26 | 164 | 6.4 | 16.1 | 0.00 | 0.00 | 0.00 | 78 | 1000.9 |
| 20260506003203 | 26 | 151 | 6.4 | 16.1 | 0.00 | 0.00 | 0.00 | 78 | 1001.0 |
| 20260506003103 | 26 | 152 | 8.0 | 16.1 | 0.00 | 0.00 | 0.00 | 78 | 1000.8 |
| 20260506003003 | 26 | 158 | 8.0 | 16.1 | 0.00 | 0.00 | 0.00 | 78 | 1000.8 |
| 20260506002902 | 26 | 207 | 8.0 | 16.1 | 0.00 | 0.00 | 0.00 | 78 | 1000.9 |
| 20260506002805 | 26 | 144 | 6.4 | 16.1 | 0.00 | 0.00 | 0.00 | 78 | 1000.9 |
| 20260506002702 | 26 | 228 | 8.0 | 16.1 | 0.00 | 0.00 | 0.00 | 78 | 1000.8 |
| 20260506002604 | 26 | 161 | 9.7 | 16.1 | 0.00 | 0.00 | 0.00 | 78 | 1000.7 |
| 20260506002504 | 26 | 141 | 8.0 | 16.1 | 0.00 | 0.00 | 0.00 | 78 | 1000.7 |
| 20260506002402 | 26 | 151 | 8.0 | 16.1 | 0.00 | 0.00 | 0.00 | 78 | 1000.7 |
| 20260506002306 | 26 | 157 | 6.4 | 16.1 | 0.00 | 0.00 | 0.00 | 78 | 1000.6 |
| 20260506002203 | 26 | 188 | 4.8 | 16.1 | 0.00 | 0.00 | 0.00 | 78 | 1000.7 |
| 20260506002103 | 26 | 130 | 4.8 | 16.1 | 0.00 | 0.00 | 0.00 | 78 | 1000.6 |
| 20260506002003 | 26 | 137 | 4.8 | 16.1 | 0.00 | 0.00 | 0.00 | 78 | 1000.7 |
| 20260506001903 | 26 | 165 | 6.4 | 16.1 | 0.00 | 0.00 | 0.00 | 78 | 1000.6 |
| 20260506001804 | 26 | 148 | 8.0 | 16.1 | 0.00 | 0.00 | 0.00 | 78 | 1000.6 |
| 20260506001704 | 26 | 171 | 8.0 | 11.3 | 0.00 | 0.00 | 0.00 | 78 | 1000.6 |
| 20260506001602 | 27 | 147 | 8.0 | 11.3 | 0.00 | 0.00 | 0.00 | 78 | 1000.6 |
| 20260506001503 | 27 | 142 | 6.4 | 16.1 | 0.00 | 0.00 | 0.00 | 78 | 1000.5 |
| 20260506001403 | 27 | 151 | 3.2 | 16.1 | 0.00 | 0.00 | 0.00 | 78 | 1000.7 |
| 20260506001303 | 27 | 131 | 4.8 | 16.1 | 0.00 | 0.00 | 0.00 | 78 | 1000.7 |
| 20260506001203 | 27 | 173 | 4.8 | 16.1 | 0.00 | 0.00 | 0.00 | 78 | 1000.7 |
| 20260506001104 | 27 | 131 | 4.8 | 16.1 | 0.00 | 0.00 | 0.00 | 78 | 1000.7 |
| 20260506001002 | 27 | 148 | 6.4 | 16.1 | 0.00 | 0.00 | 0.00 | 78 | 1000.6 |
| 20260506000903 | 27 | 171 | 8.0 | 20.9 | 0.00 | 0.00 | 0.00 | 78 | 1000.6 |
| 20260506000802 | 27 | 158 | 8.0 | 20.9 | 0.00 | 0.00 | 0.00 | 78 | 1000.7 |
| 20260506000702 | 27 | 179 | 8.0 | 20.9 | 0.00 | 0.00 | 0.00 | 78 | 1000.7 |
| 20260506000602 | 27 | 151 | 6.4 | 20.9 | 0.00 | 0.00 | 0.00 | 78 | 1000.8 |
| 20260506000503 | 27 | 145 | 6.4 | 20.9 | 0.00 | 0.00 | 0.00 | 78 | 1000.8 |
| 20260506000402 | 27 | 186 | 6.4 | 20.9 | 0.00 | 0.00 | 0.00 | 78 | 1000.8 |
| 20260506000302 | 27 | 158 | 6.4 | 20.9 | 0.00 | 0.00 | 0.00 | 78 | 1000.8 |
| 20260506000204 | 27 | 176 | 6.4 | 20.9 | 0.00 | 0.00 | 0.00 | 78 | 1000.8 |
| 20260506000104 | 27 | 140 | 6.4 | 20.9 | 0.00 | 0.00 | 0.00 | 78 | 1000.8 |
| 20260506000004 | 27 | 116 | 6.4 | 20.9 | 0.00 | 0.00 | 0.00 | 78 | 1000.7 |
| 20260505235903 | 27 | 157 | 4.8 | 17.7 | 0.00 | 0.00 | 0.00 | 78 | 1000.7 |
| 20260505235802 | 27 | 145 | 6.4 | 17.7 | 0.00 | 0.00 | 0.00 | 78 | 1000.8 |
| 20260505235703 | 27 | 164 | 6.4 | 17.7 | 0.00 | 0.00 | 0.00 | 78 | 1000.7 |
| 20260505235602 | 27 | 149 | 6.4 | 17.7 | 0.00 | 0.00 | 0.00 | 78 | 1000.8 |
| 20260505235504 | 27 | 141 | 6.4 | 17.7 | 0.00 | 0.00 | 0.00 | 78 | 1000.7 |
| 20260505235403 | 27 | 152 | 6.4 | 17.7 | 0.00 | 0.00 | 0.00 | 78 | 1000.7 |
| 20260505235304 | 27 | 145 | 8.0 | 17.7 | 0.00 | 0.00 | 0.00 | 78 | 1000.7 |
| 20260505235203 | 27 | 165 | 8.0 | 17.7 | 0.00 | 0.00 | 0.00 | 78 | 1000.6 |
| 20260505235102 | 27 | 152 | 9.7 | 19.3 | 0.00 | 0.00 | 0.00 | 78 | 1000.7 |
| 20260505235004 | 27 | 116 | 9.7 | 19.3 | 0.00 | 0.00 | 0.00 | 78 | 1000.7 |
| 20260505234903 | 27 | 113 | 6.4 | 19.3 | 0.00 | 0.00 | 0.00 | 78 | 1000.7 |
| 20260505234803 | 27 | 131 | 4.8 | 19.3 | 0.00 | 0.00 | 0.00 | 78 | 1000.7 |
| 20260505234703 | 27 | 155 | 4.8 | 19.3 | 0.00 | 0.00 | 0.00 | 78 | 1000.7 |
| 20260505234603 | 27 | 148 | 4.8 | 19.3 | 0.00 | 0.00 | 0.00 | 78 | 1000.6 |
| 20260505234505 | 27 | 120 | 6.4 | 19.3 | 0.00 | 0.00 | 0.00 | 78 | 1000.6 |
| 20260505234403 | 27 | 183 | 9.7 | 19.3 | 0.00 | 0.00 | 0.00 | 78 | 1000.6 |
| 20260505234304 | 27 | 159 | 9.7 | 19.3 | 0.00 | 0.00 | 0.00 | 78 | 1000.7 |
| 20260505234202 | 27 | 162 | 8.0 | 19.3 | 0.00 | 0.00 | 0.00 | 78 | 1000.6 |
| 20260505234103 | 27 | 142 | 6.4 | 19.3 | 0.00 | 0.00 | 0.00 | 78 | 1000.6 |
| 20260505234004 | 27 | 144 | 6.4 | 19.3 | 0.00 | 0.00 | 0.00 | 78 | 1000.6 |
| 20260505233903 | 27 | 162 | 6.4 | 19.3 | 0.00 | 0.00 | 0.00 | 77 | 1000.6 |
| 20260505233803 | 27 | 171 | 6.4 | 19.3 | 0.00 | 0.00 | 0.00 | 77 | 1000.7 |
| 20260505233703 | 27 | 152 | 6.4 | 19.3 | 0.00 | 0.00 | 0.00 | 77 | 1000.6 |
| 20260505233602 | 27 | 158 | 6.4 | 19.3 | 0.00 | 0.00 | 0.00 | 77 | 1000.7 |
| 20260505233504 | 27 | 206 | 6.4 | 19.3 | 0.00 | 0.00 | 0.00 | 77 | 1000.6 |
| 20260505233403 | 27 | 125 | 6.4 | 19.3 | 0.00 | 0.00 | 0.00 | 77 | 1000.6 |
| 20260505233302 | 27 | 155 | 6.4 | 19.3 | 0.00 | 0.00 | 0.00 | 77 | 1000.6 |
| 20260505233204 | 27 | 162 | 6.4 | 16.1 | 0.00 | 0.00 | 0.00 | 77 | 1000.6 |
| 20260505233104 | 27 | 192 | 6.4 | 16.1 | 0.00 | 0.00 | 0.00 | 77 | 1000.5 |
| 20260505233003 | 27 | 183 | 4.8 | 16.1 | 0.00 | 0.00 | 0.00 | 77 | 1000.6 |
| 20260505232902 | 27 | 171 | 4.8 | 16.1 | 0.00 | 0.00 | 0.00 | 77 | 1000.6 |
| 20260505232804 | 27 | 158 | 8.0 | 16.1 | 0.00 | 0.00 | 0.00 | 77 | 1000.6 |
| 20260505232703 | 27 | 152 | 8.0 | 16.1 | 0.00 | 0.00 | 0.00 | 77 | 1000.6 |
| 20260505232602 | 27 | 162 | 6.4 | 16.1 | 0.00 | 0.00 | 0.00 | 77 | 1000.6 |
| 20260505232504 | 27 | 186 | 6.4 | 16.1 | 0.00 | 0.00 | 0.00 | 77 | 1000.6 |
| 20260505232404 | 27 | 159 | 8.0 | 16.1 | 0.00 | 0.00 | 0.00 | 77 | 1000.6 |
| 20260505232305 | 27 | 142 | 8.0 | 16.1 | 0.00 | 0.00 | 0.00 | 77 | 1000.6 |
| 20260505232203 | 27 | 111 | 6.4 | 16.1 | 0.00 | 0.00 | 0.00 | 78 | 1000.6 |
| 20260505232104 | 27 | 159 | 6.4 | 14.5 | 0.00 | 0.00 | 0.00 | 78 | 1000.6 |
| 20260505232003 | 27 | 159 | 6.4 | 14.5 | 0.00 | 0.00 | 0.00 | 78 | 1000.6 |
| 20260505231903 | 27 | 141 | 6.4 | 14.5 | 0.00 | 0.00 | 0.00 | 78 | 1000.6 |
| 20260505231803 | 27 | 145 | 4.8 | 14.5 | 0.00 | 0.00 | 0.00 | 78 | 1000.6 |
| 20260505231702 | 27 | 176 | 6.4 | 14.5 | 0.00 | 0.00 | 0.00 | 78 | 1000.6 |
| 20260505231604 | 27 | 183 | 6.4 | 14.5 | 0.00 | 0.00 | 0.00 | 78 | 1000.7 |
| 20260505231503 | 27 | 148 | 6.4 | 14.5 | 0.00 | 0.00 | 0.00 | 77 | 1000.6 |
| 20260505231402 | 27 | 158 | 6.4 | 14.5 | 0.00 | 0.00 | 0.00 | 77 | 1000.6 |
| 20260505231303 | 27 | 202 | 6.4 | 14.5 | 0.00 | 0.00 | 0.00 | 77 | 1000.6 |
| 20260505231202 | 27 | 162 | 8.0 | 14.5 | 0.00 | 0.00 | 0.00 | 77 | 1000.6 |
| 20260505231104 | 27 | 179 | 8.0 | 16.1 | 0.00 | 0.00 | 0.00 | 77 | 1000.6 |
| 20260505231002 | 27 | 158 | 8.0 | 20.9 | 0.00 | 0.00 | 0.00 | 77 | 1000.5 |
| 20260505230902 | 27 | 151 | 8.0 | 20.9 | 0.00 | 0.00 | 0.00 | 77 | 1000.5 |
| 20260505230803 | 27 | 192 | 8.0 | 20.9 | 0.00 | 0.00 | 0.00 | 78 | 1000.6 |
| 20260505230703 | 27 | 149 | 6.4 | 20.9 | 0.00 | 0.00 | 0.00 | 78 | 1000.5 |
| 20260505230602 | 27 | 144 | 6.4 | 20.9 | 0.00 | 0.00 | 0.00 | 78 | 1000.5 |
| 20260505230503 | 27 | 149 | 6.4 | 20.9 | 0.00 | 0.00 | 0.00 | 78 | 1000.6 |
| 20260505230402 | 27 | 180 | 4.8 | 20.9 | 0.00 | 0.00 | 0.00 | 78 | 1000.6 |
| 20260505230303 | 27 | 164 | 8.0 | 20.9 | 0.00 | 0.00 | 0.00 | 77 | 1000.6 |
| 20260505230202 | 27 | 193 | 9.7 | 20.9 | 0.00 | 0.00 | 0.00 | 77 | 1000.6 |
| 20260505230005 | 27 | 159 | 6.4 | 17.7 | 0.00 | 0.00 | 0.00 | 77 | 1000.6 |
| 20260505225903 | 27 | 120 | 4.8 | 17.7 | 0.00 | 0.00 | 0.00 | 77 | 1000.7 |
| 20260505225801 | 27 | 164 | 4.8 | 17.7 | 0.00 | 0.00 | 0.00 | 77 | 1000.7 |
| 20260505225703 | 27 | 185 | 4.8 | 17.7 | 0.00 | 0.00 | 0.00 | 77 | 1000.7 |
| 20260505225603 | 27 | 176 | 6.4 | 17.7 | 0.00 | 0.00 | 0.00 | 77 | 1000.7 |
| 20260505225503 | 27 | 166 | 6.4 | 17.7 | 0.00 | 0.00 | 0.00 | 77 | 1000.6 |
| 20260505225404 | 27 | 165 | 4.8 | 17.7 | 0.00 | 0.00 | 0.00 | 77 | 1000.6 |
| 20260505225305 | 27 | 118 | 6.4 | 17.7 | 0.00 | 0.00 | 0.00 | 77 | 1000.6 |
| 20260505225204 | 27 | 120 | 9.7 | 17.7 | 0.00 | 0.00 | 0.00 | 77 | 1000.6 |
| 20260505225103 | 27 | 96 | 9.7 | 17.7 | 0.00 | 0.00 | 0.00 | 77 | 1000.5 |
| 20260505225003 | 27 | 137 | 9.7 | 16.1 | 0.00 | 0.00 | 0.00 | 77 | 1000.6 |
| 20260505224903 | 27 | 145 | 9.7 | 16.1 | 0.00 | 0.00 | 0.00 | 77 | 1000.6 |
| 20260505224804 | 27 | 120 | 8.0 | 16.1 | 0.00 | 0.00 | 0.00 | 77 | 1000.6 |
| 20260505224704 | 27 | 142 | 8.0 | 16.1 | 0.00 | 0.00 | 0.00 | 77 | 1000.6 |
| 20260505224602 | 27 | 155 | 9.7 | 16.1 | 0.00 | 0.00 | 0.00 | 77 | 1000.6 |
| 20260505224504 | 27 | 210 | 9.7 | 16.1 | 0.00 | 0.00 | 0.00 | 77 | 1000.5 |
| 20260505224403 | 27 | 123 | 8.0 | 16.1 | 0.00 | 0.00 | 0.00 | 77 | 1000.7 |
| 20260505224303 | 27 | 137 | 8.0 | 16.1 | 0.00 | 0.00 | 0.00 | 77 | 1000.7 |
| 20260505224202 | 27 | 148 | 8.0 | 16.1 | 0.00 | 0.00 | 0.00 | 77 | 1000.7 |
| 20260505224102 | 27 | 127 | 6.4 | 16.1 | 0.00 | 0.00 | 0.00 | 77 | 1000.6 |
| 20260505224005 | 27 | 131 | 6.4 | 16.1 | 0.00 | 0.00 | 0.00 | 77 | 1000.6 |
| 20260505223903 | 27 | 199 | 9.7 | 16.1 | 0.00 | 0.00 | 0.00 | 77 | 1000.7 |
| 20260505223803 | 27 | 111 | 9.7 | 16.1 | 0.00 | 0.00 | 0.00 | 77 | 1000.6 |
| 20260505223703 | 27 | 118 | 8.0 | 16.1 | 0.00 | 0.00 | 0.00 | 77 | 1000.7 |
| 20260505223604 | 28 | 175 | 6.4 | 11.3 | 0.00 | 0.00 | 0.00 | 77 | 1000.6 |
| 20260505223502 | 28 | 109 | 6.4 | 11.3 | 0.00 | 0.00 | 0.00 | 77 | 1000.6 |
| 20260505223403 | 28 | 164 | 4.8 | 17.7 | 0.00 | 0.00 | 0.00 | 77 | 1000.6 |
| 20260505223303 | 28 | 203 | 6.4 | 17.7 | 0.00 | 0.00 | 0.00 | 76 | 1000.6 |
| 20260505223202 | 28 | 128 | 6.4 | 17.7 | 0.00 | 0.00 | 0.00 | 77 | 1000.7 |
| 20260505223103 | 27 | 147 | 6.4 | 17.7 | 0.00 | 0.00 | 0.00 | 76 | 1000.7 |
| 20260505223003 | 28 | 117 | 6.4 | 17.7 | 0.00 | 0.00 | 0.00 | 76 | 1000.7 |
| 20260505222904 | 28 | 196 | 6.4 | 17.7 | 0.00 | 0.00 | 0.00 | 76 | 1000.7 |
| 20260505222801 | 28 | 175 | 6.4 | 17.7 | 0.00 | 0.00 | 0.00 | 76 | 1000.7 |
| 20260505222704 | 28 | 164 | 6.4 | 17.7 | 0.00 | 0.00 | 0.00 | 75 | 1000.6 |
| 20260505222602 | 28 | 157 | 8.0 | 17.7 | 0.00 | 0.00 | 0.00 | 75 | 1000.7 |
| 20260505222503 | 28 | 135 | 9.7 | 17.7 | 0.00 | 0.00 | 0.00 | 75 | 1000.7 |
| 20260505222402 | 28 | 172 | 8.0 | 17.7 | 0.00 | 0.00 | 0.00 | 76 | 1000.6 |
| 20260505222305 | 28 | 166 | 8.0 | 16.1 | 0.00 | 0.00 | 0.00 | 76 | 1000.6 |
| 20260505222203 | 28 | 179 | 6.4 | 16.1 | 0.00 | 0.00 | 0.00 | 76 | 1000.7 |
| 20260505222103 | 28 | 172 | 4.8 | 16.1 | 0.00 | 0.00 | 0.00 | 76 | 1000.7 |
| 20260505222002 | 28 | 226 | 4.8 | 16.1 | 0.00 | 0.00 | 0.00 | 76 | 1000.7 |
| 20260505221902 | 28 | 155 | 6.4 | 16.1 | 0.00 | 0.00 | 0.00 | 75 | 1000.8 |
| 20260505221803 | 28 | 189 | 6.4 | 16.1 | 0.00 | 0.00 | 0.00 | 75 | 1000.7 |
| 20260505221703 | 28 | 125 | 8.0 | 20.9 | 0.00 | 0.00 | 0.00 | 75 | 1000.7 |
| 20260505221603 | 28 | 145 | 9.7 | 20.9 | 0.00 | 0.00 | 0.00 | 75 | 1000.7 |
| 20260505221504 | 28 | 137 | 8.0 | 20.9 | 0.00 | 0.00 | 0.00 | 75 | 1000.6 |
| 20260505221403 | 28 | 161 | 9.7 | 20.9 | 0.00 | 0.00 | 0.00 | 75 | 1000.7 |
| 20260505221304 | 28 | 147 | 8.0 | 20.9 | 0.00 | 0.00 | 0.00 | 75 | 1000.8 |
| 20260505221202 | 28 | 147 | 6.4 | 20.9 | 0.00 | 0.00 | 0.00 | 75 | 1000.8 |
| 20260505221103 | 28 | 140 | 4.8 | 20.9 | 0.00 | 0.00 | 0.00 | 75 | 1000.8 |
| 20260505221003 | 28 | 165 | 6.4 | 20.9 | 0.00 | 0.00 | 0.00 | 75 | 1000.8 |
| 20260505220903 | 28 | 128 | 9.7 | 20.9 | 0.00 | 0.00 | 0.00 | 75 | 1000.8 |
| 20260505220803 | 28 | 144 | 9.7 | 20.9 | 0.00 | 0.00 | 0.00 | 75 | 1000.8 |
| 20260505220702 | 28 | 145 | 6.4 | 14.5 | 0.00 | 0.00 | 0.00 | 76 | 1000.8 |
| 20260505220604 | 28 | 138 | 3.2 | 14.5 | 0.00 | 0.00 | 0.00 | 76 | 1000.8 |
| 20260505220502 | 28 | 200 | 4.8 | 19.3 | 0.00 | 0.00 | 0.00 | 75 | 1000.8 |
| 20260505220404 | 28 | 189 | 9.7 | 19.3 | 0.00 | 0.00 | 0.00 | 75 | 1000.8 |
| 20260505220304 | 28 | 200 | 9.7 | 19.3 | 0.00 | 0.00 | 0.00 | 75 | 1000.8 |
| 20260505220203 | 28 | 164 | 8.0 | 19.3 | 0.00 | 0.00 | 0.00 | 75 | 1000.8 |
| 20260505220001 | 28 | 176 | 6.4 | 19.3 | 0.00 | 0.00 | 0.00 | 75 | 1000.8 |
| 20260505215903 | 28 | 157 | 6.4 | 19.3 | 0.00 | 0.00 | 0.00 | 75 | 1000.8 |
| 20260505215804 | 28 | 220 | 8.0 | 19.3 | 0.00 | 0.00 | 0.00 | 75 | 1000.9 |
| 20260505215703 | 28 | 178 | 6.4 | 19.3 | 0.00 | 0.00 | 0.00 | 75 | 1000.9 |
| 20260505215602 | 28 | 125 | 6.4 | 19.3 | 0.00 | 0.00 | 0.00 | 75 | 1000.9 |
| 20260505215502 | 28 | 142 | 6.4 | 14.5 | 0.00 | 0.00 | 0.00 | 75 | 1001.0 |
| 20260505215403 | 28 | 202 | 6.4 | 20.9 | 0.00 | 0.00 | 0.00 | 75 | 1001.0 |
| 20260505215305 | 28 | 168 | 6.4 | 20.9 | 0.00 | 0.00 | 0.00 | 75 | 1001.0 |
| 20260505215203 | 28 | 155 | 6.4 | 20.9 | 0.00 | 0.00 | 0.00 | 75 | 1001.0 |
| 20260505215103 | 28 | 196 | 8.0 | 20.9 | 0.00 | 0.00 | 0.00 | 75 | 1001.0 |
| 20260505215002 | 28 | 178 | 6.4 | 20.9 | 0.00 | 0.00 | 0.00 | 75 | 1001.0 |
| 20260505214904 | 28 | 172 | 6.4 | 20.9 | 0.00 | 0.00 | 0.00 | 75 | 1001.1 |
| 20260505214802 | 28 | 188 | 8.0 | 20.9 | 0.00 | 0.00 | 0.00 | 74 | 1001.1 |
| 20260505214703 | 28 | 179 | 9.7 | 20.9 | 0.00 | 0.00 | 0.00 | 74 | 1001.0 |
| 20260505214604 | 28 | 176 | 9.7 | 20.9 | 0.00 | 0.00 | 0.00 | 74 | 1001.0 |
| 20260505214502 | 28 | 183 | 8.0 | 20.9 | 0.00 | 0.00 | 0.00 | 75 | 1001.0 |
| 20260505214403 | 28 | 262 | 6.4 | 17.7 | 0.00 | 0.00 | 0.00 | 75 | 1001.1 |
| 20260505214303 | 28 | 175 | 6.4 | 17.7 | 0.00 | 0.00 | 0.00 | 74 | 1001.0 |
| 20260505214204 | 28 | 176 | 6.4 | 17.7 | 0.00 | 0.00 | 0.00 | 74 | 1001.1 |
| 20260505214101 | 28 | 199 | 9.7 | 17.7 | 0.00 | 0.00 | 0.00 | 74 | 1001.1 |
| 20260505214004 | 28 | 138 | 9.7 | 19.3 | 0.00 | 0.00 | 0.00 | 74 | 1001.1 |
| 20260505213904 | 28 | 161 | 9.7 | 19.3 | 0.00 | 0.00 | 0.00 | 74 | 1001.1 |
| 20260505213803 | 28 | 209 | 8.0 | 19.3 | 0.00 | 0.00 | 0.00 | 74 | 1001.1 |
| 20260505213702 | 28 | 158 | 11.3 | 19.3 | 0.00 | 0.00 | 0.00 | 74 | 1001.1 |
| 20260505213603 | 28 | 217 | 11.3 | 19.3 | 0.00 | 0.00 | 0.00 | 74 | 1001.1 |
| 20260505213505 | 28 | 183 | 11.3 | 19.3 | 0.00 | 0.00 | 0.00 | 74 | 1001.2 |
| 20260505213403 | 28 | 152 | 11.3 | 19.3 | 0.00 | 0.00 | 0.00 | 74 | 1001.2 |
| 20260505213302 | 28 | 210 | 9.7 | 19.3 | 0.00 | 0.00 | 0.00 | 74 | 1001.2 |
| 20260505213201 | 28 | 183 | 9.7 | 25.7 | 0.00 | 0.00 | 0.00 | 74 | 1001.2 |
| 20260505213101 | 28 | 158 | 11.3 | 25.7 | 0.00 | 0.00 | 0.00 | 74 | 1001.1 |
| 20260505213002 | 28 | 175 | 9.7 | 25.7 | 0.00 | 0.00 | 0.00 | 74 | 1001.2 |
| 20260505212904 | 28 | 172 | 8.0 | 25.7 | 0.00 | 0.00 | 0.00 | 74 | 1001.3 |
| 20260505212802 | 28 | 149 | 8.0 | 25.7 | 0.00 | 0.00 | 0.00 | 74 | 1001.2 |
| 20260505212703 | 28 | 142 | 6.4 | 25.7 | 0.00 | 0.00 | 0.00 | 74 | 1001.2 |
| 20260505212602 | 28 | 196 | 8.0 | 25.7 | 0.00 | 0.00 | 0.00 | 74 | 1001.3 |
| 20260505212504 | 28 | 142 | 9.7 | 25.7 | 0.00 | 0.00 | 0.00 | 75 | 1001.3 |
| 20260505212402 | 28 | 169 | 9.7 | 25.7 | 0.00 | 0.00 | 0.00 | 75 | 1001.3 |
| 20260505212305 | 28 | 135 | 9.7 | 25.7 | 0.00 | 0.00 | 0.00 | 75 | 1001.3 |
| 20260505212202 | 28 | 169 | 6.4 | 16.1 | 0.00 | 0.00 | 0.00 | 75 | 1001.2 |
| 20260505212103 | 28 | 190 | 8.0 | 16.1 | 0.00 | 0.00 | 0.00 | 75 | 1001.3 |
| 20260505212004 | 28 | 121 | 4.8 | 19.3 | 0.00 | 0.00 | 0.00 | 76 | 1001.3 |
| 20260505211904 | 28 | 125 | 4.8 | 19.3 | 0.00 | 0.00 | 0.00 | 76 | 1001.3 |
| 20260505211804 | 28 | 176 | 4.8 | 19.3 | 0.00 | 0.00 | 0.00 | 76 | 1001.4 |
| 20260505211702 | 28 | 169 | 4.8 | 19.3 | 0.00 | 0.00 | 0.00 | 75 | 1001.3 |
| 20260505211603 | 28 | 189 | 6.4 | 19.3 | 0.00 | 0.00 | 0.00 | 75 | 1001.3 |
| 20260505211505 | 28 | 188 | 6.4 | 19.3 | 0.00 | 0.00 | 0.00 | 75 | 1001.3 |
| 20260505211404 | 28 | 186 | 6.4 | 19.3 | 0.00 | 0.00 | 0.00 | 75 | 1001.3 |
| 20260505211304 | 28 | 180 | 8.0 | 19.3 | 0.00 | 0.00 | 0.00 | 75 | 1001.4 |
| 20260505211202 | 28 | 158 | 9.7 | 19.3 | 0.00 | 0.00 | 0.00 | 75 | 1001.4 |
| 20260505211102 | 28 | 210 | 11.3 | 19.3 | 0.00 | 0.00 | 0.00 | 75 | 1001.4 |
| 20260505211004 | 28 | 190 | 9.7 | 20.9 | 0.00 | 0.00 | 0.00 | 75 | 1001.4 |
| 20260505210904 | 28 | 135 | 11.3 | 20.9 | 0.00 | 0.00 | 0.00 | 75 | 1001.4 |
| 20260505210803 | 28 | 210 | 9.7 | 20.9 | 0.00 | 0.00 | 0.00 | 76 | 1001.6 |
| 20260505210702 | 28 | 175 | 6.4 | 22.5 | 0.00 | 0.00 | 0.00 | 76 | 1001.5 |
| 20260505210602 | 28 | 171 | 6.4 | 22.5 | 0.00 | 0.00 | 0.00 | 75 | 1001.5 |
| 20260505210504 | 28 | 196 | 8.0 | 22.5 | 0.00 | 0.00 | 0.00 | 75 | 1001.5 |
| 20260505210404 | 28 | 203 | 4.8 | 22.5 | 0.00 | 0.00 | 0.00 | 75 | 1001.6 |
| 20260505210303 | 28 | 159 | 6.4 | 22.5 | 0.00 | 0.00 | 0.00 | 75 | 1001.6 |
| 20260505210202 | 28 | 151 | 9.7 | 22.5 | 0.00 | 0.00 | 0.00 | 75 | 1001.5 |
| 20260505210003 | 28 | 193 | 9.7 | 22.5 | 0.00 | 0.00 | 0.00 | 75 | 1001.6 |
| 20260505205904 | 28 | 220 | 11.3 | 22.5 | 0.00 | 0.00 | 0.00 | 75 | 1001.6 |
| 20260505205805 | 28 | 179 | 9.7 | 22.5 | 0.00 | 0.00 | 0.00 | 75 | 1001.5 |
| 20260505205704 | 28 | 147 | 6.4 | 16.1 | 0.00 | 0.00 | 0.00 | 76 | 1001.5 |
| 20260505205602 | 28 | 154 | 4.8 | 16.1 | 0.00 | 0.00 | 0.00 | 76 | 1001.5 |
| 20260505205503 | 28 | 124 | 6.4 | 16.1 | 0.00 | 0.00 | 0.00 | 75 | 1001.5 |
| 20260505205403 | 28 | 192 | 6.4 | 16.1 | 0.00 | 0.00 | 0.00 | 75 | 1001.6 |
| 20260505205305 | 28 | 166 | 8.0 | 16.1 | 0.00 | 0.00 | 0.00 | 75 | 1001.6 |
| 20260505205204 | 28 | 192 | 8.0 | 16.1 | 0.00 | 0.00 | 0.00 | 76 | 1001.6 |
| 20260505205102 | 28 | 140 | 6.4 | 14.5 | 0.00 | 0.00 | 0.00 | 76 | 1001.6 |
| 20260505205002 | 28 | 145 | 6.4 | 11.3 | 0.00 | 0.00 | 0.00 | 76 | 1001.7 |
| 20260505204904 | 28 | 192 | 8.0 | 11.3 | 0.00 | 0.00 | 0.00 | 76 | 1001.8 |
| 20260505204804 | 28 | 188 | 6.4 | 11.3 | 0.00 | 0.00 | 0.00 | 75 | 1001.7 |
| 20260505204704 | 28 | 166 | 6.4 | 11.3 | 0.00 | 0.00 | 0.00 | 75 | 1001.7 |
| 20260505204603 | 28 | 152 | 6.4 | 11.3 | 0.00 | 0.00 | 0.00 | 75 | 1001.7 |
| 20260505204504 | 28 | 164 | 6.4 | 11.3 | 0.00 | 0.00 | 0.00 | 75 | 1001.7 |
| 20260505204403 | 28 | 179 | 6.4 | 14.5 | 0.00 | 0.00 | 0.00 | 76 | 1001.8 |
| 20260505204303 | 28 | 161 | 6.4 | 14.5 | 0.00 | 0.00 | 0.00 | 76 | 1001.7 |
| 20260505204203 | 28 | 155 | 6.4 | 14.5 | 0.00 | 0.00 | 0.00 | 76 | 1001.7 |
| 20260505204104 | 28 | 144 | 6.4 | 19.3 | 0.00 | 0.00 | 0.00 | 76 | 1001.8 |
| 20260505204003 | 28 | 158 | 4.8 | 19.3 | 0.00 | 0.00 | 0.00 | 75 | 1001.9 |
| 20260505203902 | 28 | 180 | 3.2 | 19.3 | 0.00 | 0.00 | 0.00 | 76 | 1001.9 |
| 20260505203802 | 28 | 148 | 3.2 | 19.3 | 0.00 | 0.00 | 0.00 | 75 | 1001.9 |
| 20260505203703 | 28 | 209 | 8.0 | 19.3 | 0.00 | 0.00 | 0.00 | 75 | 1001.9 |
| 20260505203604 | 28 | 209 | 8.0 | 19.3 | 0.00 | 0.00 | 0.00 | 75 | 1001.9 |
| 20260505203505 | 28 | 176 | 8.0 | 19.3 | 0.00 | 0.00 | 0.00 | 75 | 1002.0 |
| 20260505203404 | 28 | 193 | 8.0 | 19.3 | 0.00 | 0.00 | 0.00 | 75 | 1001.9 |
| 20260505203302 | 28 | 145 | 8.0 | 19.3 | 0.00 | 0.00 | 0.00 | 75 | 1001.9 |
| 20260505203204 | 28 | 179 | 8.0 | 19.3 | 0.00 | 0.00 | 0.00 | 75 | 1001.9 |
| 20260505203103 | 28 | 168 | 8.0 | 19.3 | 0.00 | 0.00 | 0.00 | 75 | 1002.0 |
| 20260505203002 | 28 | 171 | 8.0 | 19.3 | 0.00 | 0.00 | 0.00 | 75 | 1002.0 |
| 20260505202903 | 28 | 165 | 8.0 | 19.3 | 0.00 | 0.00 | 0.00 | 75 | 1001.9 |
| 20260505202802 | 28 | 176 | 9.7 | 19.3 | 0.00 | 0.00 | 0.00 | 75 | 1002.0 |
| 20260505202703 | 28 | 192 | 9.7 | 19.3 | 0.00 | 0.00 | 0.00 | 75 | 1002.0 |
| 20260505202602 | 28 | 149 | 11.3 | 19.3 | 0.00 | 0.00 | 0.00 | 75 | 1001.8 |
| 20260505202504 | 28 | 185 | 9.7 | 17.7 | 0.00 | 0.00 | 0.00 | 75 | 1002.0 |
| 20260505202402 | 28 | 207 | 9.7 | 17.7 | 0.00 | 0.00 | 0.00 | 75 | 1002.0 |
| 20260505202306 | 28 | 155 | 9.7 | 17.7 | 0.00 | 0.00 | 0.00 | 75 | 1002.0 |
| 20260505202203 | 28 | 178 | 9.7 | 17.7 | 0.00 | 0.00 | 0.00 | 75 | 1002.1 |
| 20260505202103 | 28 | 195 | 9.7 | 17.7 | 0.00 | 0.00 | 0.00 | 75 | 1002.2 |
| 20260505202004 | 28 | 178 | 6.4 | 17.7 | 0.00 | 0.00 | 0.00 | 75 | 1002.2 |
| 20260505201902 | 28 | 173 | 6.4 | 17.7 | 0.00 | 0.00 | 0.00 | 75 | 1002.3 |
| 20260505201804 | 28 | 159 | 8.0 | 17.7 | 0.00 | 0.00 | 0.00 | 75 | 1002.2 |
| 20260505201703 | 28 | 196 | 6.4 | 17.7 | 0.00 | 0.00 | 0.00 | 75 | 1002.2 |
| 20260505201601 | 28 | 182 | 6.4 | 17.7 | 0.00 | 0.00 | 0.00 | 75 | 1002.2 |
| 20260505201503 | 28 | 176 | 8.0 | 17.7 | 0.00 | 0.00 | 0.00 | 75 | 1002.2 |
| 20260505201402 | 28 | 257 | 6.4 | 17.7 | 0.00 | 0.00 | 0.00 | 75 | 1002.2 |
| 20260505201304 | 28 | 148 | 9.7 | 17.7 | 0.00 | 0.00 | 0.00 | 75 | 1002.2 |
| 20260505201204 | 28 | 183 | 9.7 | 17.7 | 0.00 | 0.00 | 0.00 | 75 | 1002.2 |
| 20260505201103 | 28 | 128 | 9.7 | 17.7 | 0.00 | 0.00 | 0.00 | 75 | 1002.3 |
| 20260505201004 | 28 | 199 | 9.7 | 17.7 | 0.00 | 0.00 | 0.00 | 75 | 1002.2 |
| 20260505200902 | 28 | 206 | 6.4 | 17.7 | 0.00 | 0.00 | 0.00 | 75 | 1002.3 |
| 20260505200803 | 28 | 162 | 8.0 | 17.7 | 0.00 | 0.00 | 0.00 | 75 | 1002.3 |
| 20260505200703 | 28 | 217 | 8.0 | 17.7 | 0.00 | 0.00 | 0.00 | 75 | 1002.4 |
| 20260505200602 | 28 | 189 | 9.7 | 17.7 | 0.00 | 0.00 | 0.00 | 75 | 1002.4 |
| 20260505200503 | 28 | 202 | 9.7 | 17.7 | 0.00 | 0.00 | 0.00 | 76 | 1002.4 |
| 20260505200402 | 28 | 186 | 8.0 | 17.7 | 0.00 | 0.00 | 0.00 | 76 | 1002.4 |
| 20260505200303 | 28 | 241 | 9.7 | 17.7 | 0.00 | 0.00 | 0.00 | 75 | 1002.4 |
| 20260505200202 | 28 | 178 | 9.7 | 17.7 | 0.00 | 0.00 | 0.00 | 75 | 1002.4 |
| 20260505200104 | 28 | 162 | 8.0 | 16.1 | 0.00 | 0.00 | 0.00 | 76 | 1002.4 |
| 20260505200004 | 28 | 185 | 8.0 | 16.1 | 0.00 | 0.00 | 0.00 | 76 | 1002.4 |
| 20260505195902 | 28 | 182 | 8.0 | 16.1 | 0.00 | 0.00 | 0.00 | 77 | 1002.5 |
| 20260505195803 | 28 | 178 | 8.0 | 14.5 | 0.00 | 0.00 | 0.00 | 77 | 1002.4 |
| 20260505195702 | 28 | 207 | 8.0 | 16.1 | 0.00 | 0.00 | 0.00 | 77 | 1002.4 |
| 20260505195603 | 27 | 186 | 8.0 | 16.1 | 0.00 | 0.00 | 0.00 | 77 | 1002.4 |
| 20260505195502 | 27 | 206 | 8.0 | 16.1 | 0.00 | 0.00 | 0.00 | 76 | 1002.4 |
| 20260505195404 | 28 | 216 | 8.0 | 16.1 | 0.00 | 0.00 | 0.00 | 76 | 1002.4 |
| 20260505195305 | 28 | 212 | 9.7 | 16.1 | 0.00 | 0.00 | 0.00 | 76 | 1002.4 |
| 20260505195202 | 28 | 157 | 8.0 | 16.1 | 0.00 | 0.00 | 0.00 | 76 | 1002.4 |
| 20260505195102 | 28 | 169 | 8.0 | 20.9 | 0.00 | 0.00 | 0.00 | 77 | 1002.4 |
| 20260505195004 | 28 | 200 | 8.0 | 20.9 | 0.00 | 0.00 | 0.00 | 77 | 1002.4 |
| 20260505194902 | 28 | 192 | 6.4 | 20.9 | 0.00 | 0.00 | 0.00 | 77 | 1002.5 |
| 20260505194803 | 27 | 206 | 8.0 | 20.9 | 0.00 | 0.00 | 0.00 | 76 | 1002.4 |
| 20260505194703 | 27 | 220 | 6.4 | 20.9 | 0.00 | 0.00 | 0.00 | 77 | 1002.5 |
| 20260505194604 | 27 | 166 | 8.0 | 20.9 | 0.00 | 0.00 | 0.00 | 77 | 1002.5 |
| 20260505194502 | 27 | 178 | 8.0 | 20.9 | 0.00 | 0.00 | 0.00 | 77 | 1002.6 |
| 20260505194403 | 27 | 180 | 9.7 | 20.9 | 0.00 | 0.00 | 0.00 | 77 | 1002.6 |
| 20260505194303 | 27 | 189 | 11.3 | 20.9 | 0.00 | 0.00 | 0.00 | 77 | 1002.5 |
| 20260505194203 | 27 | 178 | 11.3 | 20.9 | 0.00 | 0.00 | 0.00 | 77 | 1002.6 |
| 20260505194104 | 27 | 104 | 6.4 | 20.9 | 0.00 | 0.00 | 0.00 | 77 | 1002.7 |
| 20260505194002 | 27 | 165 | 9.7 | 20.9 | 0.00 | 0.00 | 0.00 | 77 | 1002.6 |
| 20260505193902 | 27 | 182 | 9.7 | 20.9 | 0.00 | 0.00 | 0.00 | 77 | 1002.6 |
| 20260505193803 | 27 | 162 | 9.7 | 20.9 | 0.00 | 0.00 | 0.00 | 77 | 1002.6 |
| 20260505193703 | 27 | 149 | 8.0 | 20.9 | 0.00 | 0.00 | 0.00 | 77 | 1002.7 |
| 20260505193603 | 27 | 140 | 8.0 | 20.9 | 0.00 | 0.00 | 0.00 | 77 | 1002.7 |
| 20260505193503 | 27 | 210 | 8.0 | 17.7 | 0.00 | 0.00 | 0.00 | 77 | 1002.7 |
| 20260505193403 | 27 | 226 | 8.0 | 17.7 | 0.00 | 0.00 | 0.00 | 77 | 1002.6 |
| 20260505193303 | 27 | 182 | 6.4 | 11.3 | 0.00 | 0.00 | 0.00 | 77 | 1002.7 |
| 20260505193203 | 27 | 197 | 6.4 | 16.1 | 0.00 | 0.00 | 0.00 | 77 | 1002.6 |
| 20260505193103 | 27 | 212 | 6.4 | 16.1 | 0.00 | 0.00 | 0.00 | 77 | 1002.6 |
| 20260505193002 | 27 | 251 | 6.4 | 16.1 | 0.00 | 0.00 | 0.00 | 77 | 1002.7 |
| 20260505192902 | 27 | 157 | 6.4 | 16.1 | 0.00 | 0.00 | 0.00 | 77 | 1002.6 |
| 20260505192804 | 27 | 155 | 6.4 | 16.1 | 0.00 | 0.00 | 0.00 | 77 | 1002.6 |
| 20260505192703 | 27 | 186 | 6.4 | 16.1 | 0.00 | 0.00 | 0.00 | 77 | 1002.7 |
| 20260505192603 | 27 | 144 | 6.4 | 16.1 | 0.00 | 0.00 | 0.00 | 77 | 1002.7 |
| 20260505192502 | 27 | 173 | 6.4 | 16.1 | 0.00 | 0.00 | 0.00 | 77 | 1002.7 |
| 20260505192403 | 27 | 158 | 8.0 | 16.1 | 0.00 | 0.00 | 0.00 | 76 | 1002.7 |
| 20260505192305 | 27 | 178 | 9.7 | 16.1 | 0.00 | 0.00 | 0.00 | 76 | 1002.7 |
| 20260505192203 | 27 | 206 | 9.7 | 14.5 | 0.00 | 0.00 | 0.00 | 76 | 1002.8 |
| 20260505192102 | 27 | 166 | 8.0 | 14.5 | 0.00 | 0.00 | 0.00 | 77 | 1002.7 |
| 20260505192005 | 27 | 185 | 6.4 | 14.5 | 0.00 | 0.00 | 0.00 | 77 | 1002.7 |
| 20260505191903 | 28 | 147 | 6.4 | 11.3 | 0.00 | 0.00 | 0.00 | 76 | 1002.7 |
| 20260505191801 | 28 | 147 | 8.0 | 11.3 | 0.00 | 0.00 | 0.00 | 76 | 1002.8 |
| 20260505191704 | 28 | 176 | 8.0 | 11.3 | 0.00 | 0.00 | 0.00 | 77 | 1002.7 |
| 20260505191602 | 28 | 183 | 6.4 | 11.3 | 0.00 | 0.00 | 0.00 | 78 | 1002.8 |
| 20260505191503 | 27 | 154 | 4.8 | 9.7 | 0.00 | 0.00 | 0.00 | 78 | 1002.8 |
| 20260505191404 | 27 | 168 | 3.2 | 16.1 | 0.00 | 0.00 | 0.00 | 78 | 1002.7 |
| 20260505191302 | 27 | 175 | 3.2 | 16.1 | 0.00 | 0.00 | 0.00 | 78 | 1002.7 |
| 20260505191202 | 27 | 207 | 3.2 | 16.1 | 0.00 | 0.00 | 0.00 | 77 | 1002.8 |
| 20260505191103 | 27 | 207 | 6.4 | 16.1 | 0.00 | 0.00 | 0.00 | 77 | 1002.8 |
| 20260505191005 | 27 | 233 | 6.4 | 17.7 | 0.00 | 0.00 | 0.00 | 77 | 1002.8 |
| 20260505190903 | 27 | 172 | 6.4 | 17.7 | 0.00 | 0.00 | 0.00 | 77 | 1002.8 |
| 20260505190801 | 27 | 214 | 6.4 | 17.7 | 0.00 | 0.00 | 0.00 | 77 | 1002.8 |
| 20260505190702 | 27 | 158 | 6.4 | 17.7 | 0.00 | 0.00 | 0.00 | 77 | 1002.8 |
| 20260505190604 | 27 | 179 | 8.0 | 17.7 | 0.00 | 0.00 | 0.00 | 76 | 1002.8 |
| 20260505190505 | 27 | 207 | 9.7 | 17.7 | 0.00 | 0.00 | 0.00 | 76 | 1002.8 |
| 20260505190403 | 27 | 212 | 8.0 | 17.7 | 0.00 | 0.00 | 0.00 | 77 | 1002.8 |
| 20260505190302 | 27 | 188 | 8.0 | 17.7 | 0.00 | 0.00 | 0.00 | 76 | 1002.8 |
| 20260505190204 | 27 | 199 | 8.0 | 17.7 | 0.00 | 0.00 | 0.00 | 76 | 1002.8 |
| 20260505190104 | 27 | 162 | 8.0 | 17.7 | 0.00 | 0.00 | 0.00 | 77 | 1002.8 |
| 20260505190005 | 27 | 185 | 6.4 | 16.1 | 0.00 | 0.00 | 0.00 | 77 | 1002.8 |
| 20260505185902 | 27 | 164 | 4.8 | 16.1 | 0.00 | 0.00 | 0.00 | 77 | 1002.7 |
| 20260505185802 | 27 | 186 | 8.0 | 16.1 | 0.00 | 0.00 | 0.00 | 77 | 1002.7 |
| 20260505185703 | 27 | 234 | 4.8 | 16.1 | 0.00 | 0.00 | 0.00 | 77 | 1002.7 |
| 20260505185603 | 27 | 162 | 6.4 | 16.1 | 0.00 | 0.00 | 0.00 | 77 | 1002.7 |
| 20260505185504 | 27 | 154 | 8.0 | 16.1 | 0.00 | 0.00 | 0.00 | 77 | 1002.8 |
| 20260505185402 | 27 | 185 | 8.0 | 16.1 | 0.00 | 0.00 | 0.00 | 77 | 1002.8 |
| 20260505185305 | 27 | 220 | 4.8 | 16.1 | 0.00 | 0.00 | 0.00 | 78 | 1002.7 |
| 20260505185201 | 27 | 135 | 3.2 | 16.1 | 0.00 | 0.00 | 0.00 | 78 | 1002.8 |
| 20260505185103 | 27 | 175 | 4.8 | 16.1 | 0.00 | 0.00 | 0.00 | 77 | 1002.8 |
| 20260505185004 | 27 | 175 | 6.4 | 20.9 | 0.00 | 0.00 | 0.00 | 77 | 1002.8 |
| 20260505184902 | 27 | 186 | 6.4 | 20.9 | 0.00 | 0.00 | 0.00 | 77 | 1002.8 |
| 20260505184803 | 27 | 214 | 6.4 | 20.9 | 0.00 | 0.00 | 0.00 | 77 | 1002.8 |
| 20260505184703 | 27 | 196 | 6.4 | 20.9 | 0.00 | 0.00 | 0.00 | 77 | 1002.8 |
| 20260505184603 | 27 | 173 | 8.0 | 20.9 | 0.00 | 0.00 | 0.00 | 77 | 1003.0 |
| 20260505184503 | 27 | 217 | 6.4 | 20.9 | 0.00 | 0.00 | 0.00 | 77 | 1002.9 |
| 20260505184403 | 27 | 228 | 8.0 | 20.9 | 0.00 | 0.00 | 0.00 | 77 | 1002.9 |
| 20260505184303 | 27 | 152 | 8.0 | 20.9 | 0.00 | 0.00 | 0.00 | 77 | 1002.9 |
| 20260505184202 | 27 | 207 | 8.0 | 20.9 | 0.00 | 0.00 | 0.00 | 77 | 1002.9 |
| 20260505184104 | 27 | 164 | 9.7 | 20.9 | 0.00 | 0.00 | 0.00 | 77 | 1002.9 |
| 20260505184004 | 27 | 196 | 9.7 | 17.7 | 0.00 | 0.00 | 0.00 | 77 | 1002.9 |
| 20260505183903 | 27 | 192 | 6.4 | 17.7 | 0.00 | 0.00 | 0.00 | 77 | 1003.0 |
| 20260505183805 | 27 | 193 | 6.4 | 16.1 | 0.00 | 0.00 | 0.00 | 78 | 1002.9 |
| 20260505183702 | 27 | 193 | 6.4 | 16.1 | 0.00 | 0.00 | 0.00 | 78 | 1003.1 |
| 20260505183603 | 27 | 165 | 6.4 | 16.1 | 0.00 | 0.00 | 0.00 | 78 | 1002.9 |
| 20260505183504 | 27 | 203 | 6.4 | 16.1 | 0.00 | 0.00 | 0.00 | 78 | 1002.9 |
| 20260505183403 | 27 | 217 | 6.4 | 16.1 | 0.00 | 0.00 | 0.00 | 78 | 1003.0 |
| 20260505183303 | 27 | 185 | 6.4 | 16.1 | 0.00 | 0.00 | 0.00 | 77 | 1003.0 |
| 20260505183202 | 27 | 166 | 8.0 | 16.1 | 0.00 | 0.00 | 0.00 | 78 | 1002.9 |
| 20260505183103 | 27 | 206 | 6.4 | 16.1 | 0.00 | 0.00 | 0.00 | 78 | 1003.0 |
| 20260505183004 | 27 | 151 | 4.8 | 14.5 | 0.00 | 0.00 | 0.00 | 78 | 1002.9 |
| 20260505182902 | 27 | 166 | 3.2 | 9.7 | 0.00 | 0.00 | 0.00 | 78 | 1003.0 |
| 20260505182804 | 27 | 188 | 4.8 | 9.7 | 0.00 | 0.00 | 0.00 | 78 | 1003.0 |
| 20260505182703 | 27 | 166 | 6.4 | 9.7 | 0.00 | 0.00 | 0.00 | 77 | 1002.9 |
| 20260505182604 | 27 | 186 | 6.4 | 14.5 | 0.00 | 0.00 | 0.00 | 78 | 1003.1 |
| 20260505182503 | 27 | 196 | 6.4 | 14.5 | 0.00 | 0.00 | 0.00 | 78 | 1003.1 |
| 20260505182402 | 27 | 165 | 6.4 | 14.5 | 0.00 | 0.00 | 0.00 | 78 | 1003.0 |
| 20260505182306 | 27 | 148 | 6.4 | 14.5 | 0.00 | 0.00 | 0.00 | 79 | 1003.0 |
| 20260505182202 | 27 | 202 | 6.4 | 14.5 | 0.00 | 0.00 | 0.00 | 79 | 1003.1 |
| 20260505182103 | 27 | 182 | 4.8 | 14.5 | 0.00 | 0.00 | 0.00 | 79 | 1003.1 |
| 20260505182004 | 27 | 161 | 3.2 | 14.5 | 0.00 | 0.00 | 0.00 | 79 | 1003.0 |
| 20260505181903 | 27 | 186 | 3.2 | 14.5 | 0.00 | 0.00 | 0.00 | 79 | 1003.1 |
| 20260505181802 | 27 | 193 | 4.8 | 14.5 | 0.00 | 0.00 | 0.00 | 79 | 1003.1 |
| 20260505181702 | 26 | 217 | 6.4 | 14.5 | 0.00 | 0.00 | 0.00 | 79 | 1003.1 |
| 20260505181602 | 26 | 207 | 6.4 | 14.5 | 0.00 | 0.00 | 0.00 | 79 | 1003.1 |
| 20260505181503 | 26 | 127 | 8.0 | 14.5 | 0.00 | 0.00 | 0.00 | 79 | 1003.1 |
| 20260505181403 | 26 | 185 | 9.7 | 14.5 | 0.00 | 0.00 | 0.00 | 79 | 1003.1 |
| 20260505181302 | 26 | 179 | 9.7 | 14.5 | 0.00 | 0.00 | 0.00 | 79 | 1003.1 |
| 20260505181203 | 26 | 216 | 8.0 | 14.5 | 0.00 | 0.00 | 0.00 | 79 | 1003.2 |
| 20260505181102 | 27 | 180 | 9.7 | 27.4 | 0.00 | 0.00 | 0.00 | 78 | 1003.3 |
| 20260505181006 | 27 | 166 | 9.7 | 27.4 | 0.00 | 0.00 | 0.00 | 78 | 1003.2 |
| 20260505180903 | 27 | 168 | 8.0 | 27.4 | 0.00 | 0.00 | 0.00 | 79 | 1003.2 |
| 20260505180802 | 27 | 178 | 8.0 | 27.4 | 0.00 | 0.00 | 0.00 | 79 | 1003.2 |
| 20260505180702 | 27 | 213 | 6.4 | 27.4 | 0.00 | 0.00 | 0.00 | 79 | 1003.3 |
| 20260505180603 | 27 | 197 | 6.4 | 27.4 | 0.00 | 0.00 | 0.00 | 79 | 1003.2 |
| 20260505180503 | 27 | 188 | 8.0 | 27.4 | 0.00 | 0.00 | 0.00 | 79 | 1003.2 |
| 20260505180403 | 27 | 189 | 8.0 | 27.4 | 0.00 | 0.00 | 0.00 | 79 | 1003.2 |
| 20260505180304 | 27 | 209 | 9.7 | 27.4 | 0.00 | 0.00 | 0.00 | 79 | 1003.2 |
| 20260505180204 | 27 | 196 | 8.0 | 27.4 | 0.00 | 0.00 | 0.00 | 79 | 1003.3 |
| 20260505180005 | 26 | 155 | 3.2 | 11.3 | 0.00 | 0.00 | 0.00 | 80 | 1003.3 |
| 20260505175902 | 26 | 155 | 4.8 | 11.3 | 0.00 | 0.00 | 0.00 | 80 | 1003.3 |
| 20260505175803 | 26 | 157 | 6.4 | 14.5 | 0.00 | 0.00 | 0.00 | 80 | 1003.4 |
| 20260505175702 | 26 | 185 | 6.4 | 14.5 | 0.00 | 0.00 | 0.00 | 80 | 1003.3 |
| 20260505175602 | 26 | 188 | 6.4 | 14.5 | 0.00 | 0.00 | 0.00 | 80 | 1003.4 |
| 20260505175505 | 26 | 176 | 4.8 | 14.5 | 0.00 | 0.00 | 0.00 | 80 | 1003.4 |
| 20260505175403 | 26 | 179 | 6.4 | 14.5 | 0.00 | 0.00 | 0.00 | 80 | 1003.4 |
| 20260505175305 | 26 | 186 | 6.4 | 16.1 | 0.00 | 0.00 | 0.00 | 80 | 1003.4 |
| 20260505175202 | 26 | 186 | 4.8 | 16.1 | 0.00 | 0.00 | 0.00 | 80 | 1003.4 |
| 20260505175102 | 26 | 179 | 4.8 | 16.1 | 0.00 | 0.00 | 0.00 | 80 | 1003.5 |
| 20260505175004 | 26 | 197 | 6.4 | 16.1 | 0.00 | 0.00 | 0.00 | 80 | 1003.4 |
| 20260505174902 | 26 | 207 | 6.4 | 16.1 | 0.00 | 0.00 | 0.00 | 80 | 1003.4 |
| 20260505174804 | 26 | 179 | 6.4 | 17.7 | 0.00 | 0.00 | 0.00 | 80 | 1003.5 |
| 20260505174703 | 26 | 175 | 6.4 | 17.7 | 0.00 | 0.00 | 0.00 | 80 | 1003.5 |
| 20260505174603 | 26 | 204 | 6.4 | 17.7 | 0.00 | 0.00 | 0.00 | 80 | 1003.5 |
| 20260505174502 | 26 | 197 | 8.0 | 17.7 | 0.00 | 0.00 | 0.00 | 80 | 1003.5 |
| 20260505174402 | 26 | 164 | 8.0 | 17.7 | 0.00 | 0.00 | 0.00 | 80 | 1003.5 |
| 20260505174303 | 26 | 195 | 9.7 | 17.7 | 0.00 | 0.00 | 0.00 | 80 | 1003.5 |
| 20260505174202 | 26 | 210 | 9.7 | 19.3 | 0.00 | 0.00 | 0.00 | 80 | 1003.5 |
| 20260505174103 | 26 | 188 | 9.7 | 19.3 | 0.00 | 0.00 | 0.00 | 80 | 1003.5 |
| 20260505174003 | 26 | 186 | 9.7 | 19.3 | 0.00 | 0.00 | 0.00 | 80 | 1003.5 |
| 20260505173902 | 26 | 220 | 9.7 | 19.3 | 0.00 | 0.00 | 0.00 | 80 | 1003.5 |
| 20260505173802 | 26 | 47 | 8.0 | 19.3 | 0.00 | 0.00 | 0.00 | 80 | 1003.6 |
| 20260505173702 | 26 | 165 | 6.4 | 19.3 | 0.00 | 0.00 | 0.00 | 80 | 1003.6 |
| 20260505173603 | 26 | 183 | 8.0 | 19.3 | 0.00 | 0.00 | 0.00 | 80 | 1003.5 |
| 20260505173503 | 26 | 188 | 8.0 | 19.3 | 0.00 | 0.00 | 0.00 | 80 | 1003.6 |
| 20260505173401 | 26 | 220 | 9.7 | 19.3 | 0.00 | 0.00 | 0.00 | 80 | 1003.6 |
| 20260505173302 | 26 | 219 | 9.7 | 19.3 | 0.00 | 0.00 | 0.00 | 80 | 1003.5 |
| 20260505173202 | 26 | 190 | 8.0 | 16.1 | 0.00 | 0.00 | 0.00 | 80 | 1003.6 |
| 20260505173104 | 26 | 157 | 8.0 | 16.1 | 0.00 | 0.00 | 0.00 | 80 | 1003.6 |
| 20260505173003 | 26 | 202 | 8.0 | 16.1 | 0.00 | 0.00 | 0.00 | 80 | 1003.7 |
| 20260505172903 | 26 | 234 | 9.7 | 16.1 | 0.00 | 0.00 | 0.00 | 80 | 1003.7 |
| 20260505172803 | 26 | 176 | 9.7 | 16.1 | 0.00 | 0.00 | 0.00 | 80 | 1003.6 |
| 20260505172701 | 26 | 202 | 8.0 | 14.5 | 0.00 | 0.00 | 0.00 | 80 | 1003.6 |
| 20260505172602 | 26 | 180 | 6.4 | 14.5 | 0.00 | 0.00 | 0.00 | 80 | 1003.6 |
| 20260505172502 | 26 | 135 | 6.4 | 14.5 | 0.00 | 0.00 | 0.00 | 80 | 1003.7 |
| 20260505172403 | 26 | 179 | 8.0 | 14.5 | 0.00 | 0.00 | 0.00 | 80 | 1003.6 |
| 20260505172306 | 26 | 213 | 8.0 | 14.5 | 0.00 | 0.00 | 0.00 | 80 | 1003.5 |
| 20260505172203 | 26 | 243 | 8.0 | 14.5 | 0.00 | 0.00 | 0.00 | 80 | 1003.6 |
| 20260505172104 | 26 | 185 | 6.4 | 14.5 | 0.00 | 0.00 | 0.00 | 80 | 1003.5 |
| 20260505172003 | 26 | 176 | 6.4 | 14.5 | 0.00 | 0.00 | 0.00 | 80 | 1003.6 |
| 20260505171903 | 26 | 183 | 8.0 | 14.5 | 0.00 | 0.00 | 0.00 | 80 | 1003.6 |
| 20260505171804 | 26 | 168 | 4.8 | 11.3 | 0.00 | 0.00 | 0.00 | 81 | 1003.5 |
| 20260505171704 | 26 | 128 | 4.8 | 11.3 | 0.00 | 0.00 | 0.00 | 81 | 1003.5 |
| 20260505171603 | 26 | 145 | 4.8 | 11.3 | 0.00 | 0.00 | 0.00 | 81 | 1003.5 |
| 20260505171504 | 26 | 144 | 4.8 | 11.3 | 0.00 | 0.00 | 0.00 | 81 | 1003.6 |
| 20260505171404 | 26 | 161 | 4.8 | 14.5 | 0.00 | 0.00 | 0.00 | 81 | 1003.5 |
| 20260505171303 | 26 | 162 | 4.8 | 14.5 | 0.00 | 0.00 | 0.00 | 81 | 1003.5 |
| 20260505171203 | 26 | 175 | 4.8 | 14.5 | 0.00 | 0.00 | 0.00 | 81 | 1003.5 |
| 20260505171104 | 26 | 148 | 4.8 | 14.5 | 0.00 | 0.00 | 0.00 | 81 | 1003.5 |
| 20260505171003 | 26 | 157 | 3.2 | 14.5 | 0.00 | 0.00 | 0.00 | 81 | 1003.5 |
| 20260505170903 | 26 | 179 | 6.4 | 14.5 | 0.00 | 0.00 | 0.00 | 81 | 1003.5 |
| 20260505170802 | 26 | 182 | 6.4 | 14.5 | 0.00 | 0.00 | 0.00 | 81 | 1003.5 |
| 20260505170703 | 26 | 216 | 8.0 | 14.5 | 0.00 | 0.00 | 0.00 | 81 | 1003.5 |
| 20260505170601 | 26 | 183 | 9.7 | 14.5 | 0.00 | 0.00 | 0.00 | 81 | 1003.4 |
| 20260505170504 | 26 | 209 | 6.4 | 17.7 | 0.00 | 0.00 | 0.00 | 81 | 1003.5 |
| 20260505170403 | 26 | 200 | 4.8 | 17.7 | 0.00 | 0.00 | 0.00 | 81 | 1003.6 |
| 20260505170302 | 26 | 128 | 6.4 | 17.7 | 0.00 | 0.00 | 0.00 | 81 | 1003.5 |
| 20260505170201 | 26 | 228 | 6.4 | 17.7 | 0.00 | 0.00 | 0.00 | 81 | 1003.6 |
| 20260505170003 | 26 | 165 | 8.0 | 17.7 | 0.00 | 0.00 | 0.00 | 81 | 1003.6 |
| 20260505165903 | 26 | 182 | 9.7 | 17.7 | 0.00 | 0.00 | 0.00 | 81 | 1003.5 |
| 20260505165803 | 26 | 217 | 9.7 | 17.7 | 0.00 | 0.00 | 0.00 | 81 | 1003.6 |
| 20260505165703 | 26 | 148 | 9.7 | 17.7 | 0.00 | 0.00 | 0.00 | 82 | 1003.7 |
| 20260505165603 | 26 | 189 | 9.7 | 17.7 | 0.00 | 0.00 | 0.00 | 82 | 1003.6 |
| 20260505165503 | 26 | 202 | 8.0 | 17.7 | 0.00 | 0.00 | 0.00 | 82 | 1003.6 |
| 20260505165403 | 26 | 142 | 6.4 | 17.7 | 0.00 | 0.00 | 0.00 | 82 | 1003.7 |
| 20260505165302 | 26 | 196 | 8.0 | 17.7 | 0.00 | 0.00 | 0.00 | 82 | 1003.6 |
| 20260505165203 | 26 | 227 | 8.0 | 17.7 | 0.00 | 0.00 | 0.00 | 82 | 1003.7 |
| 20260505165102 | 26 | 188 | 8.0 | 17.7 | 0.00 | 0.00 | 0.00 | 82 | 1003.7 |
| 20260505165005 | 26 | 231 | 8.0 | 17.7 | 0.00 | 0.00 | 0.00 | 82 | 1003.6 |
| 20260505164902 | 26 | 168 | 4.8 | 14.5 | 0.00 | 0.00 | 0.00 | 82 | 1003.7 |
| 20260505164803 | 26 | 188 | 4.8 | 14.5 | 0.00 | 0.00 | 0.00 | 82 | 1003.8 |
| 20260505164701 | 26 | 189 | 4.8 | 14.5 | 0.00 | 0.00 | 0.00 | 82 | 1003.7 |
| 20260505164603 | 26 | 219 | 8.0 | 14.5 | 0.00 | 0.00 | 0.00 | 83 | 1003.6 |
| 20260505164503 | 26 | 173 | 6.4 | 14.5 | 0.00 | 0.00 | 0.00 | 83 | 1003.7 |
| 20260505164404 | 26 | 131 | 3.2 | 9.7 | 0.00 | 0.00 | 0.00 | 83 | 1003.6 |
| 20260505164302 | 26 | 217 | 3.2 | 9.7 | 0.00 | 0.00 | 0.00 | 83 | 1003.6 |
| 20260505164203 | 26 | 142 | 4.8 | 11.3 | 0.00 | 0.00 | 0.00 | 82 | 1003.7 |
| 20260505164102 | 26 | 142 | 6.4 | 11.3 | 0.00 | 0.00 | 0.00 | 82 | 1003.7 |
| 20260505164002 | 26 | 178 | 4.8 | 11.3 | 0.00 | 0.00 | 0.00 | 82 | 1003.6 |
| 20260505163903 | 26 | 195 | 4.8 | 11.3 | 0.00 | 0.00 | 0.00 | 82 | 1003.6 |
| 20260505163802 | 26 | 192 | 3.2 | 11.3 | 0.00 | 0.00 | 0.00 | 82 | 1003.5 |
| 20260505163704 | 26 | 168 | 3.2 | 14.5 | 0.00 | 0.00 | 0.00 | 82 | 1003.6 |
| 20260505163603 | 26 | 193 | 4.8 | 14.5 | 0.00 | 0.00 | 0.00 | 82 | 1003.6 |
| 20260505163503 | 26 | 185 | 6.4 | 14.5 | 0.00 | 0.00 | 0.00 | 82 | 1003.7 |
| 20260505163402 | 26 | 171 | 6.4 | 14.5 | 0.00 | 0.00 | 0.00 | 82 | 1003.7 |
| 20260505163302 | 26 | 168 | 4.8 | 14.5 | 0.00 | 0.00 | 0.00 | 82 | 1003.6 |
| 20260505163203 | 26 | 175 | 4.8 | 14.5 | 0.00 | 0.00 | 0.00 | 82 | 1003.6 |
| 20260505163104 | 26 | 212 | 6.4 | 14.5 | 0.00 | 0.00 | 0.00 | 82 | 1003.6 |
| 20260505163004 | 26 | 178 | 6.4 | 14.5 | 0.00 | 0.00 | 0.00 | 82 | 1003.6 |
| 20260505162902 | 26 | 199 | 8.0 | 14.5 | 0.00 | 0.00 | 0.00 | 82 | 1003.6 |
| 20260505162803 | 26 | 216 | 8.0 | 14.5 | 0.00 | 0.00 | 0.00 | 83 | 1003.6 |
| 20260505162702 | 26 | 178 | 6.4 | 11.3 | 0.00 | 0.00 | 0.00 | 83 | 1003.6 |
| 20260505162605 | 26 | 195 | 4.8 | 11.3 | 0.00 | 0.00 | 0.00 | 83 | 1003.6 |
| 20260505162502 | 26 | 152 | 3.2 | 11.3 | 0.00 | 0.00 | 0.00 | 83 | 1003.7 |
| 20260505162403 | 25 | 175 | 6.4 | 11.3 | 0.00 | 0.00 | 0.00 | 83 | 1003.6 |
| 20260505162306 | 25 | 192 | 8.0 | 11.3 | 0.00 | 0.00 | 0.00 | 83 | 1003.7 |
| 20260505162203 | 25 | 168 | 6.4 | 11.3 | 0.00 | 0.00 | 0.00 | 83 | 1003.6 |
| 20260505162104 | 25 | 196 | 6.4 | 11.3 | 0.00 | 0.00 | 0.00 | 83 | 1003.6 |
| 20260505162002 | 25 | 200 | 6.4 | 11.3 | 0.00 | 0.00 | 0.00 | 83 | 1003.6 |
| 20260505161902 | 25 | 199 | 6.4 | 11.3 | 0.00 | 0.00 | 0.00 | 83 | 1003.6 |
| 20260505161803 | 25 | 189 | 8.0 | 11.3 | 0.00 | 0.00 | 0.00 | 83 | 1003.6 |
| 20260505161702 | 25 | 182 | 8.0 | 11.3 | 0.00 | 0.00 | 0.00 | 83 | 1003.6 |
| 20260505161603 | 25 | 212 | 6.4 | 11.3 | 0.00 | 0.00 | 0.00 | 83 | 1003.6 |
| 20260505161504 | 25 | 197 | 6.4 | 11.3 | 0.00 | 0.00 | 0.00 | 83 | 1003.6 |
| 20260505161402 | 25 | 209 | 8.0 | 11.3 | 0.00 | 0.00 | 0.00 | 83 | 1003.6 |
| 20260505161302 | 25 | 204 | 6.4 | 14.5 | 0.00 | 0.00 | 0.00 | 83 | 1003.6 |
| 20260505161203 | 25 | 202 | 4.8 | 14.5 | 0.00 | 0.00 | 0.00 | 83 | 1003.7 |
| 20260505161104 | 25 | 168 | 4.8 | 14.5 | 0.00 | 0.00 | 0.00 | 83 | 1003.6 |
| 20260505161003 | 25 | 212 | 4.8 | 14.5 | 0.00 | 0.00 | 0.00 | 83 | 1003.7 |
| 20260505160903 | 25 | 207 | 3.2 | 14.5 | 0.00 | 0.00 | 0.00 | 83 | 1003.6 |
| 20260505160802 | 25 | 165 | 1.6 | 14.5 | 0.00 | 0.00 | 0.00 | 83 | 1003.6 |
| 20260505160703 | 25 | 188 | 3.2 | 14.5 | 0.00 | 0.00 | 0.00 | 83 | 1003.6 |
| 20260505160603 | 25 | 185 | 4.8 | 14.5 | 0.00 | 0.00 | 0.00 | 83 | 1003.6 |
| 20260505160502 | 25 | 182 | 6.4 | 14.5 | 0.00 | 0.00 | 0.00 | 83 | 1003.6 |
| 20260505160402 | 25 | 176 | 8.0 | 14.5 | 0.00 | 0.00 | 0.00 | 83 | 1003.6 |
| 20260505160304 | 25 | 209 | 9.7 | 14.5 | 0.00 | 0.00 | 0.00 | 84 | 1003.5 |
| 20260505160203 | 25 | 195 | 8.0 | 14.5 | 0.00 | 0.00 | 0.00 | 84 | 1003.5 |
| 20260505160104 | 25 | 172 | 6.4 | 14.5 | 0.00 | 0.00 | 0.00 | 84 | 1003.5 |
| 20260505153303 | 25 | 152 | 9.7 | 16.1 | 0.00 | 0.00 | 0.00 | 86 | 1003.3 |
| 20260505153203 | 25 | 192 | 6.4 | 14.5 | 0.00 | 0.00 | 0.00 | 86 | 1003.3 |
| 20260505153104 | 25 | 175 | 4.8 | 14.5 | 0.00 | 0.00 | 0.00 | 86 | 1003.3 |
| 20260505153004 | 25 | 185 | 4.8 | 14.5 | 0.00 | 0.00 | 0.00 | 87 | 1003.2 |
| 20260505152902 | 24 | 166 | 6.4 | 14.5 | 0.00 | 0.00 | 0.00 | 87 | 1003.2 |
| 20260505152801 | 24 | 157 | 6.4 | 14.5 | 0.00 | 0.00 | 0.00 | 87 | 1003.3 |
| 20260505152702 | 24 | 157 | 6.4 | 14.5 | 0.00 | 0.00 | 0.00 | 87 | 1003.2 |
| 20260505152603 | 24 | 158 | 6.4 | 14.5 | 0.00 | 0.00 | 0.00 | 87 | 1003.3 |
| 20260505152504 | 24 | 168 | 6.4 | 14.5 | 0.00 | 0.00 | 0.00 | 87 | 1003.3 |
| 20260505152404 | 24 | 138 | 6.4 | 14.5 | 0.00 | 0.00 | 0.00 | 88 | 1003.4 |
| 20260505152305 | 24 | 190 | 8.0 | 14.5 | 0.00 | 0.00 | 0.00 | 88 | 1003.4 |
| 20260505152202 | 24 | 166 | 6.4 | 14.5 | 0.00 | 0.00 | 0.00 | 88 | 1003.4 |
| 20260505152104 | 24 | 137 | 6.4 | 11.3 | 0.00 | 0.00 | 0.00 | 88 | 1003.4 |
| 20260505152004 | 24 | 158 | 4.8 | 11.3 | 0.00 | 0.00 | 0.00 | 88 | 1003.4 |
| 20260505151903 | 24 | 171 | 4.8 | 11.3 | 0.00 | 0.00 | 0.00 | 88 | 1003.4 |
| 20260505151803 | 23 | 145 | 6.4 | 11.3 | 0.00 | 0.00 | 0.00 | 88 | 1003.4 |
| 20260505151703 | 23 | 183 | 6.4 | 11.3 | 0.00 | 0.00 | 0.00 | 88 | 1003.4 |
| 20260505151603 | 23 | 131 | 4.8 | 9.7 | 0.00 | 0.00 | 0.00 | 88 | 1003.3 |
| 20260505151502 | 23 | 164 | 4.8 | 9.7 | 0.00 | 0.00 | 0.00 | 88 | 1003.4 |
| 20260505151403 | 23 | 164 | 6.4 | 9.7 | 0.00 | 0.00 | 0.00 | 88 | 1003.4 |
| 20260505151304 | 23 | 180 | 6.4 | 9.7 | 0.00 | 0.00 | 0.00 | 88 | 1003.4 |
| 20260505151204 | 23 | 217 | 6.4 | 9.7 | 0.00 | 0.00 | 0.00 | 88 | 1003.4 |
| 20260505151104 | 23 | 209 | 3.2 | 11.3 | 0.00 | 0.00 | 0.00 | 88 | 1003.4 |
| 20260505151003 | 23 | 161 | 3.2 | 14.5 | 0.00 | 0.00 | 0.00 | 88 | 1003.5 |
| 20260505150904 | 23 | 158 | 4.8 | 16.1 | 0.00 | 0.00 | 0.00 | 87 | 1003.5 |
| 20260505150803 | 23 | 165 | 4.8 | 16.1 | 0.00 | 0.00 | 0.00 | 87 | 1003.4 |
| 20260505150703 | 23 | 173 | 4.8 | 16.1 | 0.00 | 0.00 | 0.00 | 87 | 1003.4 |
| 20260505150603 | 23 | 202 | 4.8 | 16.1 | 0.00 | 0.00 | 0.00 | 87 | 1003.4 |
| 20260505150502 | 24 | 161 | 6.4 | 16.1 | 0.00 | 0.00 | 0.00 | 87 | 1003.4 |
| 20260505150402 | 23 | 192 | 6.4 | 16.1 | 0.00 | 0.00 | 0.00 | 87 | 1003.4 |
| 20260505150303 | 24 | 220 | 6.4 | 16.1 | 0.00 | 0.00 | 0.00 | 87 | 1003.4 |
| 20260505150203 | 24 | 195 | 8.0 | 16.1 | 0.00 | 0.00 | 0.00 | 87 | 1003.4 |
| 20260505140602 | 24 | 149 | 8.0 | 24.1 | 0.00 | 0.00 | 0.00 | 86 | 1003.1 |
| 20260505140503 | 24 | 149 | 6.4 | 22.5 | 0.00 | 0.00 | 0.00 | 87 | 1003.0 |
| 20260505140403 | 24 | 155 | 6.4 | 22.5 | 0.00 | 0.00 | 0.00 | 87 | 1003.0 |
| 20260505140303 | 24 | 178 | 6.4 | 22.5 | 0.00 | 0.00 | 0.00 | 87 | 1002.8 |
| 20260505140203 | 24 | 166 | 4.8 | 22.5 | 0.00 | 0.00 | 0.00 | 87 | 1002.8 |
| 20260505140104 | 24 | 116 | 4.8 | 22.5 | 0.00 | 0.00 | 0.00 | 87 | 1002.8 |
| 20260505130312 | 22 | 173 | 4.8 | 9.7 | 0.00 | 0.00 | 0.00 | 89 | 1003.0 |
| 20260505130212 | 22 | 188 | 6.4 | 9.7 | 0.00 | 0.00 | 0.00 | 89 | 1003.0 |
| 20260505130113 | 22 | 149 | 4.8 | 9.7 | 0.00 | 0.00 | 0.00 | 89 | 1003.0 |
| 20260505125012 | 22 | 144 | 4.8 | 8.0 | 0.00 | 0.00 | 0.00 | 90 | 1003.0 |
| 20260505124914 | 22 | 130 | 4.8 | 8.0 | 0.00 | 0.00 | 0.00 | 90 | 1003.1 |
| 20260505124813 | 22 | 118 | 4.8 | 8.0 | 0.00 | 0.00 | 0.00 | 90 | 1003.1 |
| 20260505124713 | 22 | 157 | 4.8 | 8.0 | 0.00 | 0.00 | 0.00 | 90 | 1003.1 |
| 20260505124614 | 22 | 169 | 3.2 | 8.0 | 0.00 | 0.00 | 0.00 | 90 | 1003.0 |
| 20260505124512 | 22 | 171 | 3.2 | 8.0 | 0.00 | 0.00 | 0.00 | 90 | 1003.0 |
| 20260505124411 | 22 | 175 | 3.2 | 8.0 | 0.00 | 0.00 | 0.00 | 90 | 1002.9 |
| 20260505124312 | 22 | 159 | 3.2 | 9.7 | 0.00 | 0.00 | 0.00 | 90 | 1003.1 |
| 20260505124213 | 22 | 128 | 3.2 | 9.7 | 0.00 | 0.00 | 0.00 | 90 | 1002.8 |
| 20260505124113 | 22 | 165 | 1.6 | 9.7 | 0.00 | 0.00 | 0.00 | 90 | 1003.0 |
| 20260505124013 | 22 | 162 | 3.2 | 9.7 | 0.00 | 0.00 | 0.00 | 90 | 1002.9 |
| 20260505123913 | 22 | 164 | 4.8 | 9.7 | 0.00 | 0.00 | 0.00 | 90 | 1003.0 |
| 20260505123812 | 22 | 157 | 4.8 | 9.7 | 0.00 | 0.00 | 0.00 | 90 | 1002.9 |
| 20260505123711 | 22 | 154 | 4.8 | 9.7 | 0.00 | 0.00 | 0.00 | 90 | 1003.0 |
| 20260505123613 | 22 | 140 | 4.8 | 9.7 | 0.00 | 0.00 | 0.00 | 90 | 1003.0 |
| 20260505123513 | 22 | 178 | 4.8 | 9.7 | 0.00 | 0.00 | 0.00 | 90 | 1003.0 |
| 20260505123412 | 22 | 130 | 4.8 | 9.7 | 0.00 | 0.00 | 0.00 | 90 | 1002.9 |
| 20260505123313 | 22 | 166 | 3.2 | 6.4 | 0.00 | 0.00 | 0.00 | 90 | 1003.1 |
| 20260505123211 | 22 | 137 | 3.2 | 6.4 | 0.00 | 0.00 | 0.00 | 90 | 1003.0 |
| 20260505123111 | 22 | 130 | 4.8 | 6.4 | 0.00 | 0.00 | 0.00 | 90 | 1002.9 |
| 20260505123013 | 22 | 148 | 3.2 | 6.4 | 0.00 | 0.00 | 0.00 | 90 | 1002.9 |
| 20260505122911 | 22 | 158 | 3.2 | 6.4 | 0.00 | 0.00 | 0.00 | 90 | 1002.9 |
| 20260505122813 | 22 | 154 | 3.2 | 6.4 | 0.00 | 0.00 | 0.00 | 90 | 1002.8 |
| 20260505122711 | 22 | 154 | 3.2 | 6.4 | 0.00 | 0.00 | 0.00 | 90 | 1002.8 |
| 20260505122611 | 22 | 162 | 3.2 | 6.4 | 0.00 | 0.00 | 0.00 | 90 | 1002.8 |
| 20260505122513 | 22 | 162 | 3.2 | 6.4 | 0.00 | 0.00 | 0.00 | 90 | 1002.9 |
| 20260505122411 | 22 | 149 | 3.2 | 6.4 | 0.00 | 0.00 | 0.00 | 91 | 1002.7 |
| 20260505122312 | 21 | 145 | 3.2 | 6.4 | 0.00 | 0.00 | 0.00 | 91 | 1002.7 |
| 20260505122214 | 21 | 147 | 3.2 | 6.4 | 0.00 | 0.00 | 0.00 | 91 | 1002.8 |
| 20260505122112 | 21 | 149 | 3.2 | 4.8 | 0.00 | 0.00 | 0.00 | 91 | 1002.8 |
| 20260505122013 | 21 | 154 | 1.6 | 4.8 | 0.00 | 0.00 | 0.00 | 91 | 1002.8 |
| 20260505121911 | 21 | 154 | 1.6 | 4.8 | 0.00 | 0.00 | 0.00 | 91 | 1002.8 |
| 20260505121811 | 21 | 157 | 1.6 | 4.8 | 0.00 | 0.00 | 0.00 | 91 | 1002.7 |
| 20260505121714 | 21 | 162 | 1.6 | 4.8 | 0.00 | 0.00 | 0.00 | 91 | 1002.8 |
| 20260505121613 | 21 | 164 | 1.6 | 4.8 | 0.00 | 0.00 | 0.00 | 91 | 1002.6 |
| 20260505121511 | 21 | 164 | 3.2 | 4.8 | 0.00 | 0.00 | 0.00 | 91 | 1002.7 |
| 20260505121411 | 21 | 161 | 3.2 | 4.8 | 0.00 | 0.00 | 0.00 | 91 | 1002.7 |
| 20260505121311 | 21 | 162 | 3.2 | 4.8 | 0.00 | 0.00 | 0.00 | 90 | 1002.8 |
| 20260505121211 | 21 | 154 | 1.6 | 4.8 | 0.00 | 0.00 | 0.00 | 91 | 1002.8 |
| 20260505121113 | 21 | 151 | 1.6 | 4.8 | 0.00 | 0.00 | 0.00 | 90 | 1002.9 |
| 20260505121011 | 21 | 151 | 0.0 | 4.8 | 0.00 | 0.00 | 0.00 | 90 | 1002.8 |
| 20260505120912 | 21 | 154 | 1.6 | 4.8 | 0.00 | 0.00 | 0.00 | 90 | 1002.8 |
| 20260505120811 | 21 | 152 | 1.6 | 8.0 | 0.00 | 0.00 | 0.00 | 90 | 1002.8 |
| 20260505120713 | 21 | 152 | 1.6 | 8.0 | 0.00 | 0.00 | 0.00 | 90 | 1002.8 |
| 20260505120611 | 21 | 149 | 3.2 | 8.0 | 0.00 | 0.00 | 0.00 | 90 | 1002.7 |
| 20260505120512 | 21 | 145 | 3.2 | 8.0 | 0.00 | 0.00 | 0.00 | 90 | 1002.6 |
| 20260505120412 | 21 | 154 | 1.6 | 8.0 | 0.00 | 0.00 | 0.00 | 90 | 1002.6 |
| 20260505120312 | 21 | 152 | 1.6 | 8.0 | 0.00 | 0.00 | 0.00 | 90 | 1002.6 |
| 20260505120212 | 21 | 151 | 1.6 | 8.0 | 0.00 | 0.00 | 0.00 | 90 | 1002.6 |
| 20260505120111 | 21 | 149 | 1.6 | 8.0 | 0.00 | 0.00 | 0.00 | 90 | 1002.6 |
| 20260505120013 | 21 | 154 | 3.2 | 8.0 | 0.00 | 0.00 | 0.00 | 90 | 1002.5 |
| 20260505115910 | 21 | 157 | 3.2 | 8.0 | 0.00 | 0.00 | 0.00 | 90 | 1002.6 |
| 20260505115810 | 21 | 165 | 3.2 | 8.0 | 0.00 | 0.00 | 0.00 | 90 | 1002.5 |
| 20260505115711 | 21 | 145 | 1.6 | 8.0 | 0.00 | 0.00 | 0.00 | 90 | 1002.6 |
| 20260505115610 | 21 | 151 | 1.6 | 8.0 | 0.00 | 0.00 | 0.00 | 90 | 1002.5 |
| 20260505115511 | 21 | 151 | 3.2 | 8.0 | 0.00 | 0.00 | 0.00 | 90 | 1002.5 |
| 20260505115411 | 21 | 155 | 3.2 | 8.0 | 0.00 | 0.00 | 0.00 | 90 | 1002.6 |
| 20260505115311 | 21 | 155 | 3.2 | 8.0 | 0.00 | 0.00 | 0.00 | 90 | 1002.6 |
| 20260505115210 | 21 | 157 | 3.2 | 8.0 | 0.00 | 0.00 | 0.00 | 90 | 1002.6 |
| 20260505115112 | 21 | 166 | 3.2 | 8.0 | 0.00 | 0.00 | 0.00 | 90 | 1002.6 |
| 20260505115010 | 21 | 157 | 3.2 | 8.0 | 0.00 | 0.00 | 0.00 | 90 | 1002.4 |
| 20260505114912 | 21 | 152 | 1.6 | 8.0 | 0.00 | 0.00 | 0.00 | 90 | 1002.4 |
| 20260505114811 | 21 | 147 | 1.6 | 8.0 | 0.00 | 0.00 | 0.00 | 90 | 1002.3 |
| 20260505114710 | 21 | 149 | 1.6 | 8.0 | 0.00 | 0.00 | 0.00 | 90 | 1002.4 |
| 20260505114611 | 21 | 142 | 3.2 | 8.0 | 0.00 | 0.00 | 0.00 | 90 | 1002.3 |
| 20260505114511 | 21 | 152 | 3.2 | 8.0 | 0.00 | 0.00 | 0.00 | 90 | 1002.2 |
| 20260505114410 | 21 | 141 | 3.2 | 8.0 | 0.00 | 0.00 | 0.00 | 90 | 1002.2 |
| 20260505114311 | 21 | 155 | 3.2 | 9.7 | 0.00 | 0.00 | 0.00 | 90 | 1002.2 |
| 20260505114210 | 21 | 158 | 3.2 | 9.7 | 0.00 | 0.00 | 0.00 | 90 | 1002.2 |
| 20260505114110 | 21 | 159 | 3.2 | 9.7 | 0.00 | 0.00 | 0.00 | 90 | 1002.3 |
| 20260505114011 | 21 | 130 | 1.6 | 9.7 | 0.00 | 0.00 | 0.00 | 90 | 1002.3 |
| 20260505113911 | 21 | 157 | 1.6 | 9.7 | 0.00 | 0.00 | 0.00 | 90 | 1002.4 |
| 20260505113810 | 21 | 157 | 3.2 | 9.7 | 0.00 | 0.00 | 0.00 | 90 | 1002.5 |
| 20260505113710 | 21 | 159 | 3.2 | 9.7 | 0.00 | 0.00 | 0.00 | 90 | 1002.5 |
| 20260505113610 | 21 | 186 | 4.8 | 9.7 | 0.00 | 0.00 | 0.00 | 90 | 1002.6 |
| 20260505113511 | 21 | 154 | 4.8 | 9.7 | 0.00 | 0.00 | 0.00 | 90 | 1002.6 |
| 20260505113413 | 21 | 210 | 3.2 | 9.7 | 0.00 | 0.00 | 0.00 | 90 | 1002.5 |
| 20260505113311 | 21 | 166 | 1.6 | 4.8 | 0.00 | 0.00 | 0.00 | 90 | 1002.6 |
| 20260505113211 | 21 | 166 | 1.6 | 4.8 | 0.00 | 0.00 | 0.00 | 90 | 1002.6 |
| 20260505113111 | 21 | 168 | 0.0 | 6.4 | 0.00 | 0.00 | 0.00 | 90 | 1002.7 |
| 20260505113010 | 21 | 168 | 0.0 | 6.4 | 0.00 | 0.00 | 0.00 | 90 | 1002.7 |
| 20260505112910 | 21 | 168 | 1.6 | 6.4 | 0.00 | 0.00 | 0.00 | 90 | 1002.8 |
| 20260505112811 | 21 | 169 | 1.6 | 6.4 | 0.00 | 0.00 | 0.00 | 90 | 1002.8 |
| 20260505112710 | 21 | 168 | 3.2 | 6.4 | 0.00 | 0.00 | 0.00 | 90 | 1002.7 |
| 20260505112611 | 21 | 165 | 3.2 | 6.4 | 0.00 | 0.00 | 0.00 | 90 | 1002.8 |
| 20260505112510 | 21 | 133 | 3.2 | 8.0 | 0.00 | 0.00 | 0.00 | 90 | 1002.7 |
| 20260505112410 | 21 | 155 | 3.2 | 8.0 | 0.00 | 0.00 | 0.00 | 90 | 1002.6 |
| 20260505112311 | 21 | 173 | 3.2 | 8.0 | 0.00 | 0.00 | 0.00 | 90 | 1002.6 |
| 20260505112212 | 21 | 166 | 3.2 | 8.0 | 0.00 | 0.00 | 0.00 | 90 | 1002.7 |
| 20260505112111 | 21 | 166 | 3.2 | 8.0 | 0.00 | 0.00 | 0.00 | 90 | 1002.7 |
| 20260505112010 | 21 | 155 | 3.2 | 8.0 | 0.00 | 0.00 | 0.00 | 90 | 1002.6 |
| 20260505111911 | 21 | 154 | 1.6 | 8.0 | 0.00 | 0.00 | 0.00 | 90 | 1002.7 |
| 20260505111811 | 21 | 164 | 3.2 | 8.0 | 0.00 | 0.00 | 0.00 | 90 | 1002.7 |
| 20260505111709 | 21 | 130 | 3.2 | 8.0 | 0.00 | 0.00 | 0.00 | 90 | 1002.7 |
| 20260505111611 | 21 | 140 | 3.2 | 8.0 | 0.00 | 0.00 | 0.00 | 90 | 1002.7 |
| 20260505111510 | 21 | 169 | 3.2 | 8.0 | 0.00 | 0.00 | 0.00 | 90 | 1002.6 |
| 20260505111410 | 21 | 166 | 3.2 | 8.0 | 0.00 | 0.00 | 0.00 | 90 | 1002.6 |
| 20260505111311 | 21 | 152 | 3.2 | 8.0 | 0.00 | 0.00 | 0.00 | 90 | 1002.5 |
| 20260505111210 | 21 | 162 | 3.2 | 8.0 | 0.00 | 0.00 | 0.00 | 90 | 1002.5 |
| 20260505111110 | 21 | 147 | 1.6 | 8.0 | 0.00 | 0.00 | 0.00 | 90 | 1002.4 |
| 20260505111011 | 21 | 137 | 3.2 | 8.0 | 0.00 | 0.00 | 0.00 | 90 | 1002.4 |
| 20260505110910 | 21 | 157 | 3.2 | 8.0 | 0.00 | 0.00 | 0.00 | 90 | 1002.4 |
| 20260505110811 | 21 | 161 | 4.8 | 8.0 | 0.00 | 0.00 | 0.00 | 90 | 1002.4 |
| 20260505110711 | 21 | 123 | 1.6 | 6.4 | 0.00 | 0.00 | 0.00 | 90 | 1002.4 |
| 20260505110610 | 21 | 149 | 1.6 | 6.4 | 0.00 | 0.00 | 0.00 | 90 | 1002.4 |
| 20260505110510 | 21 | 151 | 3.2 | 9.7 | 0.00 | 0.00 | 0.00 | 90 | 1002.4 |
| 20260505110410 | 21 | 148 | 3.2 | 9.7 | 0.00 | 0.00 | 0.00 | 90 | 1002.5 |
| 20260505110311 | 21 | 157 | 3.2 | 9.7 | 0.00 | 0.00 | 0.00 | 90 | 1002.4 |
| 20260505110210 | 21 | 157 | 3.2 | 9.7 | 0.00 | 0.00 | 0.00 | 90 | 1002.4 |
| 20260505110111 | 21 | 157 | 3.2 | 9.7 | 0.00 | 0.00 | 0.00 | 90 | 1002.3 |
| 20260505102209 | 21 | 140 | 3.2 | 11.3 | 0.00 | 0.00 | 0.00 | 89 | 1002.7 |
| 20260505102109 | 21 | 158 | 3.2 | 11.3 | 0.00 | 0.00 | 0.00 | 89 | 1002.7 |
| 20260505102010 | 21 | 148 | 3.2 | 8.0 | 0.00 | 0.00 | 0.00 | 89 | 1002.6 |
| 20260505101908 | 21 | 147 | 3.2 | 8.0 | 0.00 | 0.00 | 0.00 | 89 | 1002.6 |
| 20260505101809 | 21 | 173 | 3.2 | 8.0 | 0.00 | 0.00 | 0.00 | 89 | 1002.6 |
| 20260505101708 | 21 | 162 | 3.2 | 9.7 | 0.00 | 0.00 | 0.00 | 89 | 1002.6 |
| 20260505101609 | 21 | 121 | 3.2 | 9.7 | 0.00 | 0.00 | 0.00 | 89 | 1002.6 |
| 20260505101510 | 21 | 180 | 3.2 | 9.7 | 0.00 | 0.00 | 0.00 | 89 | 1002.6 |
| 20260505101408 | 21 | 166 | 3.2 | 14.5 | 0.00 | 0.00 | 0.00 | 89 | 1002.6 |
| 20260505101308 | 21 | 142 | 4.8 | 16.1 | 0.00 | 0.00 | 0.00 | 89 | 1002.6 |
| 20260505101209 | 21 | 192 | 4.8 | 16.1 | 0.00 | 0.00 | 0.00 | 89 | 1002.5 |
| 20260505101109 | 21 | 152 | 4.8 | 16.1 | 0.00 | 0.00 | 0.00 | 89 | 1002.5 |
| 20260505101009 | 21 | 140 | 4.8 | 16.1 | 0.00 | 0.00 | 0.00 | 89 | 1002.5 |
| 20260505100909 | 21 | 116 | 4.8 | 16.1 | 0.00 | 0.00 | 0.00 | 89 | 1002.5 |
| 20260505100810 | 21 | 173 | 3.2 | 16.1 | 0.00 | 0.00 | 0.00 | 89 | 1002.5 |
| 20260505100709 | 21 | 142 | 3.2 | 16.1 | 0.00 | 0.00 | 0.00 | 89 | 1002.5 |
| 20260505100610 | 21 | 162 | 6.4 | 16.1 | 0.00 | 0.00 | 0.00 | 89 | 1002.5 |
| 20260505100509 | 21 | 134 | 6.4 | 16.1 | 0.00 | 0.00 | 0.00 | 89 | 1002.5 |
| 20260505100409 | 21 | 141 | 4.8 | 16.1 | 0.00 | 0.00 | 0.00 | 89 | 1002.5 |
| 20260505100309 | 21 | 155 | 4.8 | 14.5 | 0.00 | 0.00 | 0.00 | 89 | 1002.5 |
| 20260505100210 | 21 | 141 | 6.4 | 14.5 | 0.00 | 0.00 | 0.00 | 89 | 1002.5 |
| 20260505100108 | 21 | 145 | 3.2 | 9.7 | 0.00 | 0.00 | 0.00 | 89 | 1002.5 |
| 20260505100009 | 21 | 125 | 3.2 | 8.0 | 0.00 | 0.00 | 0.00 | 89 | 1002.5 |
| 20260505095910 | 21 | 149 | 3.2 | 8.0 | 0.00 | 0.00 | 0.00 | 89 | 1002.6 |
| 20260505095810 | 21 | 147 | 3.2 | 8.0 | 0.00 | 0.00 | 0.00 | 89 | 1002.6 |
| 20260505095709 | 21 | 162 | 3.2 | 8.0 | 0.00 | 0.00 | 0.00 | 89 | 1002.6 |
| 20260505095609 | 21 | 155 | 3.2 | 9.7 | 0.00 | 0.00 | 0.00 | 89 | 1002.6 |
| 20260505095509 | 21 | 155 | 3.2 | 9.7 | 0.00 | 0.00 | 0.00 | 89 | 1002.6 |
| 20260505095411 | 21 | 179 | 3.2 | 9.7 | 0.00 | 0.00 | 0.00 | 89 | 1002.8 |
| 20260505095308 | 21 | 144 | 3.2 | 9.7 | 0.00 | 0.00 | 0.00 | 89 | 1002.8 |
| 20260505095208 | 21 | 182 | 3.2 | 9.7 | 0.00 | 0.00 | 0.00 | 89 | 1002.8 |
| 20260505095110 | 21 | 186 | 1.6 | 9.7 | 0.00 | 0.00 | 0.00 | 89 | 1002.8 |
| 20260505095010 | 21 | 159 | 0.0 | 9.7 | 0.00 | 0.00 | 0.00 | 89 | 1002.8 |
| 20260505094910 | 21 | 159 | 1.6 | 9.7 | 0.00 | 0.00 | 0.00 | 89 | 1002.9 |
| 20260505094809 | 21 | 138 | 3.2 | 9.7 | 0.00 | 0.00 | 0.00 | 89 | 1002.9 |
| 20260505094709 | 21 | 138 | 4.8 | 9.7 | 0.00 | 0.00 | 0.00 | 89 | 1002.9 |
| 20260505094609 | 21 | 182 | 1.6 | 9.7 | 0.00 | 0.00 | 0.00 | 89 | 1002.8 |
| 20260505094509 | 21 | 166 | 1.6 | 9.7 | 0.00 | 0.00 | 0.00 | 89 | 1002.8 |
| 20260505094408 | 21 | 169 | 3.2 | 9.7 | 0.00 | 0.00 | 0.00 | 89 | 1002.8 |
| 20260505094309 | 21 | 175 | 3.2 | 9.7 | 0.00 | 0.00 | 0.00 | 89 | 1002.8 |
| 20260505094207 | 21 | 155 | 3.2 | 9.7 | 0.00 | 0.00 | 0.00 | 89 | 1002.7 |
| 20260505094109 | 21 | 141 | 4.8 | 9.7 | 0.00 | 0.00 | 0.00 | 89 | 1002.7 |
| 20260505094010 | 21 | 133 | 3.2 | 8.0 | 0.00 | 0.00 | 0.00 | 89 | 1002.7 |
| 20260505093910 | 21 | 172 | 3.2 | 8.0 | 0.00 | 0.00 | 0.00 | 89 | 1002.6 |
| 20260505093808 | 21 | 161 | 4.8 | 8.0 | 0.00 | 0.00 | 0.00 | 89 | 1002.5 |
| 20260505093707 | 21 | 149 | 3.2 | 8.0 | 0.00 | 0.00 | 0.00 | 89 | 1002.4 |
| 20260505093607 | 21 | 148 | 3.2 | 9.7 | 0.00 | 0.00 | 0.00 | 89 | 1002.5 |
| 20260505093509 | 21 | 197 | 6.4 | 9.7 | 0.00 | 0.00 | 0.00 | 89 | 1002.4 |
| 20260505093408 | 21 | 125 | 4.8 | 11.3 | 0.00 | 0.00 | 0.00 | 89 | 1002.5 |
| 20260505093308 | 21 | 161 | 1.6 | 11.3 | 0.00 | 0.00 | 0.00 | 89 | 1002.4 |
| 20260505093209 | 21 | 154 | 1.6 | 11.3 | 0.00 | 0.00 | 0.00 | 89 | 1002.5 |
| 20260505093109 | 21 | 157 | 1.6 | 11.3 | 0.00 | 0.00 | 0.00 | 89 | 1002.5 |
| 20260505093010 | 21 | 169 | 3.2 | 11.3 | 0.00 | 0.00 | 0.00 | 89 | 1002.5 |
| 20260505092908 | 21 | 171 | 3.2 | 11.3 | 0.00 | 0.00 | 0.00 | 89 | 1002.6 |
| 20260505092808 | 21 | 161 | 4.8 | 11.3 | 0.00 | 0.00 | 0.00 | 89 | 1002.7 |
| 20260505092708 | 21 | 166 | 6.4 | 11.3 | 0.00 | 0.00 | 0.00 | 89 | 1002.6 |
| 20260505092609 | 21 | 178 | 6.4 | 11.3 | 0.00 | 0.00 | 0.00 | 89 | 1002.6 |
| 20260505092509 | 21 | 165 | 6.4 | 11.3 | 0.00 | 0.00 | 0.00 | 89 | 1002.6 |
| 20260505092409 | 21 | 168 | 3.2 | 9.7 | 0.00 | 0.00 | 0.00 | 89 | 1002.6 |
| 20260505092307 | 21 | 176 | 3.2 | 9.7 | 0.00 | 0.00 | 0.00 | 89 | 1002.7 |
| 20260505092210 | 21 | 166 | 3.2 | 9.7 | 0.00 | 0.00 | 0.00 | 89 | 1002.6 |
| 20260505092108 | 21 | 171 | 3.2 | 9.7 | 0.00 | 0.00 | 0.00 | 89 | 1002.7 |
| 20260505092008 | 21 | 178 | 3.2 | 9.7 | 0.00 | 0.00 | 0.00 | 88 | 1002.7 |
| 20260505091908 | 21 | 144 | 3.2 | 9.7 | 0.00 | 0.00 | 0.00 | 89 | 1002.7 |
| 20260505091807 | 21 | 144 | 4.8 | 9.7 | 0.00 | 0.00 | 0.00 | 88 | 1002.7 |
| 20260505091709 | 21 | 111 | 4.8 | 9.7 | 0.00 | 0.00 | 0.00 | 88 | 1002.7 |
| 20260505091609 | 21 | 171 | 3.2 | 9.7 | 0.00 | 0.00 | 0.00 | 89 | 1002.7 |
| 20260505091507 | 21 | 135 | 3.2 | 9.7 | 0.00 | 0.00 | 0.00 | 88 | 1002.8 |
| 20260505091407 | 21 | 134 | 4.8 | 9.7 | 0.00 | 0.00 | 0.00 | 88 | 1002.8 |
| 20260505091308 | 21 | 172 | 3.2 | 9.7 | 0.00 | 0.00 | 0.00 | 88 | 1002.8 |
| 20260505091208 | 21 | 162 | 3.2 | 6.4 | 0.00 | 0.00 | 0.00 | 88 | 1002.9 |
| 20260505091108 | 21 | 151 | 3.2 | 6.4 | 0.00 | 0.00 | 0.00 | 88 | 1002.8 |
| 20260505091007 | 21 | 152 | 1.6 | 6.4 | 0.00 | 0.00 | 0.00 | 88 | 1002.9 |
| 20260505090909 | 21 | 172 | 0.0 | 6.4 | 0.00 | 0.00 | 0.00 | 88 | 1002.9 |
| 20260505090807 | 21 | 172 | 0.0 | 6.4 | 0.00 | 0.00 | 0.00 | 88 | 1003.0 |
| 20260505090708 | 21 | 172 | 1.6 | 6.4 | 0.00 | 0.00 | 0.00 | 88 | 1002.9 |
| 20260505090609 | 21 | 157 | 1.6 | 6.4 | 0.00 | 0.00 | 0.00 | 88 | 1002.9 |
| 20260505090507 | 21 | 155 | 0.0 | 6.4 | 0.00 | 0.00 | 0.00 | 88 | 1002.9 |
| 20260505090408 | 21 | 155 | 1.6 | 6.4 | 0.00 | 0.00 | 0.00 | 88 | 1003.0 |
| 20260505090309 | 21 | 157 | 1.6 | 6.4 | 0.00 | 0.00 | 0.00 | 88 | 1003.0 |
| 20260505090208 | 21 | 152 | 3.2 | 6.4 | 0.00 | 0.00 | 0.00 | 88 | 1003.0 |
| 20260505090107 | 21 | 151 | 1.6 | 6.4 | 0.00 | 0.00 | 0.00 | 88 | 1002.9 |
| 20260505090008 | 21 | 164 | 0.0 | 4.8 | 0.00 | 0.00 | 0.00 | 88 | 1003.0 |
| 20260505085907 | 21 | 164 | 1.6 | 4.8 | 0.00 | 0.00 | 0.00 | 88 | 1002.9 |
| 20260505085808 | 21 | 164 | 1.6 | 4.8 | 0.00 | 0.00 | 0.00 | 88 | 1002.9 |
| 20260505085707 | 21 | 164 | 1.6 | 4.8 | 0.00 | 0.00 | 0.00 | 88 | 1003.0 |
| 20260505085608 | 21 | 164 | 1.6 | 4.8 | 0.00 | 0.00 | 0.00 | 88 | 1002.9 |
| 20260505085506 | 21 | 164 | 3.2 | 8.0 | 0.00 | 0.00 | 0.00 | 88 | 1002.9 |
| 20260505085406 | 21 | 165 | 1.6 | 8.0 | 0.00 | 0.00 | 0.00 | 88 | 1003.0 |
| 20260505085308 | 21 | 165 | 1.6 | 8.0 | 0.00 | 0.00 | 0.00 | 88 | 1003.1 |
| 20260505085207 | 21 | 164 | 3.2 | 8.0 | 0.00 | 0.00 | 0.00 | 88 | 1003.1 |
| 20260505085108 | 21 | 161 | 1.6 | 8.0 | 0.00 | 0.00 | 0.00 | 88 | 1002.9 |
| 20260505085006 | 21 | 165 | 1.6 | 8.0 | 0.00 | 0.00 | 0.00 | 88 | 1002.9 |
| 20260505084906 | 21 | 168 | 1.6 | 9.7 | 0.00 | 0.00 | 0.00 | 88 | 1002.9 |
| 20260505084808 | 21 | 168 | 3.2 | 9.7 | 0.00 | 0.00 | 0.00 | 88 | 1002.9 |
| 20260505084706 | 21 | 171 | 1.6 | 9.7 | 0.00 | 0.00 | 0.00 | 88 | 1002.9 |
| 20260505084608 | 21 | 135 | 1.6 | 9.7 | 0.00 | 0.00 | 0.00 | 88 | 1003.0 |
| 20260505084507 | 21 | 162 | 1.6 | 9.7 | 0.00 | 0.00 | 0.00 | 88 | 1003.0 |
| 20260505084406 | 21 | 169 | 3.2 | 9.7 | 0.00 | 0.00 | 0.00 | 88 | 1003.1 |
| 20260505084307 | 21 | 165 | 3.2 | 9.7 | 0.00 | 0.00 | 0.00 | 88 | 1003.1 |
| 20260505084207 | 21 | 138 | 3.2 | 9.7 | 0.00 | 0.00 | 0.00 | 88 | 1002.9 |
| 20260505084104 | 21 | 155 | 4.8 | 9.7 | 0.00 | 0.00 | 0.00 | 88 | 1002.9 |
| 20260505084004 | 21 | 164 | 4.8 | 9.7 | 0.00 | 0.00 | 0.00 | 88 | 1002.9 |
| 20260505083902 | 21 | 130 | 4.8 | 6.4 | 0.00 | 0.00 | 0.00 | 88 | 1002.9 |
| 20260505083803 | 21 | 165 | 3.2 | 8.0 | 0.00 | 0.00 | 0.00 | 88 | 1003.0 |
| 20260505083703 | 21 | 149 | 3.2 | 8.0 | 0.00 | 0.00 | 0.00 | 88 | 1003.0 |
| 20260505083604 | 21 | 169 | 3.2 | 8.0 | 0.00 | 0.00 | 0.00 | 88 | 1002.9 |
| 20260505083502 | 21 | 175 | 4.8 | 8.0 | 0.00 | 0.00 | 0.00 | 88 | 1003.0 |
| 20260505083402 | 21 | 149 | 3.2 | 8.0 | 0.00 | 0.00 | 0.00 | 88 | 1002.9 |
| 20260505083303 | 21 | 140 | 3.2 | 8.0 | 0.00 | 0.00 | 0.00 | 88 | 1003.0 |
| 20260505083203 | 21 | 128 | 3.2 | 8.0 | 0.00 | 0.00 | 0.00 | 88 | 1003.0 |
| 20260505083102 | 21 | 164 | 3.2 | 8.0 | 0.00 | 0.00 | 0.00 | 88 | 1003.0 |
| 20260505083005 | 21 | 165 | 1.6 | 8.0 | 0.00 | 0.00 | 0.00 | 88 | 1003.1 |
| 20260505082902 | 21 | 166 | 1.6 | 8.0 | 0.00 | 0.00 | 0.00 | 88 | 1003.0 |
| 20260505082801 | 21 | 148 | 1.6 | 6.4 | 0.00 | 0.00 | 0.00 | 88 | 1003.0 |
| 20260505082702 | 21 | 148 | 1.6 | 6.4 | 0.00 | 0.00 | 0.00 | 88 | 1003.2 |
| 20260505082602 | 21 | 148 | 3.2 | 8.0 | 0.00 | 0.00 | 0.00 | 88 | 1003.2 |
| 20260505082503 | 21 | 148 | 3.2 | 8.0 | 0.00 | 0.00 | 0.00 | 88 | 1003.2 |
| 20260505082404 | 21 | 148 | 1.6 | 8.0 | 0.00 | 0.00 | 0.00 | 88 | 1003.2 |
| 20260505082304 | 21 | 141 | 3.2 | 8.0 | 0.00 | 0.00 | 0.00 | 88 | 1003.2 |
| 20260505082203 | 21 | 141 | 3.2 | 8.0 | 0.00 | 0.00 | 0.00 | 88 | 1003.2 |
| 20260505082103 | 21 | 144 | 1.6 | 8.0 | 0.00 | 0.00 | 0.00 | 88 | 1003.3 |
| 20260505082006 | 21 | 144 | 0.0 | 8.0 | 0.00 | 0.00 | 0.00 | 88 | 1003.3 |
| 20260505081903 | 21 | 144 | 1.6 | 8.0 | 0.00 | 0.00 | 0.00 | 88 | 1003.4 |
| 20260505081805 | 21 | 144 | 1.6 | 9.7 | 0.00 | 0.00 | 0.00 | 88 | 1003.3 |
| 20260505081701 | 21 | 137 | 1.6 | 9.7 | 0.00 | 0.00 | 0.00 | 88 | 1003.3 |
| 20260505081603 | 21 | 151 | 3.2 | 9.7 | 0.00 | 0.00 | 0.00 | 88 | 1003.4 |
| 20260505081503 | 21 | 152 | 3.2 | 9.7 | 0.00 | 0.00 | 0.00 | 88 | 1003.4 |
| 20260505081403 | 21 | 157 | 3.2 | 9.7 | 0.00 | 0.00 | 0.00 | 88 | 1003.3 |
| 20260505081301 | 21 | 154 | 3.2 | 9.7 | 0.00 | 0.00 | 0.00 | 88 | 1003.4 |
| 20260505081202 | 21 | 162 | 3.2 | 9.7 | 0.00 | 0.00 | 0.00 | 88 | 1003.4 |
| 20260505081104 | 21 | 165 | 3.2 | 9.7 | 0.00 | 0.00 | 0.00 | 88 | 1003.4 |
| 20260505081004 | 21 | 145 | 3.2 | 9.7 | 0.00 | 0.00 | 0.00 | 87 | 1003.4 |
| 20260505080902 | 21 | 157 | 3.2 | 9.7 | 0.00 | 0.00 | 0.00 | 87 | 1003.4 |
| 20260505080802 | 21 | 189 | 1.6 | 4.8 | 0.00 | 0.00 | 0.00 | 87 | 1003.4 |
| 20260505080703 | 21 | 155 | 1.6 | 4.8 | 0.00 | 0.00 | 0.00 | 87 | 1003.3 |
| 20260505080603 | 21 | 155 | 3.2 | 6.4 | 0.00 | 0.00 | 0.00 | 87 | 1003.4 |
| 20260505080503 | 21 | 155 | 3.2 | 6.4 | 0.00 | 0.00 | 0.00 | 87 | 1003.3 |
| 20260505080402 | 21 | 159 | 3.2 | 6.4 | 0.00 | 0.00 | 0.00 | 87 | 1003.4 |
| 20260505080302 | 21 | 172 | 1.6 | 6.4 | 0.00 | 0.00 | 0.00 | 87 | 1003.3 |
| 20260505080203 | 21 | 176 | 1.6 | 6.4 | 0.00 | 0.00 | 0.00 | 87 | 1003.3 |
| 20260505080103 | 21 | 176 | 3.2 | 6.4 | 0.00 | 0.00 | 0.00 | 87 | 1003.3 |
| 20260505080004 | 21 | 192 | 3.2 | 9.7 | 0.00 | 0.00 | 0.00 | 87 | 1003.3 |
| 20260505075904 | 21 | 157 | 1.6 | 9.7 | 0.00 | 0.00 | 0.00 | 87 | 1003.3 |
| 20260505075802 | 21 | 159 | 1.6 | 9.7 | 0.00 | 0.00 | 0.00 | 87 | 1003.3 |
| 20260505075705 | 21 | 159 | 1.6 | 9.7 | 0.00 | 0.00 | 0.00 | 87 | 1003.3 |
| 20260505075603 | 21 | 173 | 1.6 | 9.7 | 0.00 | 0.00 | 0.00 | 87 | 1003.3 |
| 20260505075503 | 21 | 175 | 1.6 | 9.7 | 0.00 | 0.00 | 0.00 | 87 | 1003.4 |
| 20260505075404 | 21 | 186 | 3.2 | 9.7 | 0.00 | 0.00 | 0.00 | 87 | 1003.4 |
| 20260505075304 | 21 | 186 | 3.2 | 9.7 | 0.00 | 0.00 | 0.00 | 87 | 1003.4 |
| 20260505075203 | 21 | 155 | 4.8 | 9.7 | 0.00 | 0.00 | 0.00 | 87 | 1003.4 |
| 20260505075102 | 21 | 152 | 3.2 | 9.7 | 0.00 | 0.00 | 0.00 | 87 | 1003.4 |
| 20260505075003 | 21 | 161 | 1.6 | 8.0 | 0.00 | 0.00 | 0.00 | 87 | 1003.4 |
| 20260505074905 | 21 | 157 | 3.2 | 8.0 | 0.00 | 0.00 | 0.00 | 87 | 1003.4 |
| 20260505074802 | 21 | 165 | 4.8 | 8.0 | 0.00 | 0.00 | 0.00 | 87 | 1003.5 |
| 20260505074702 | 21 | 145 | 3.2 | 6.4 | 0.00 | 0.00 | 0.00 | 87 | 1003.5 |
| 20260505074604 | 21 | 162 | 1.6 | 6.4 | 0.00 | 0.00 | 0.00 | 87 | 1003.5 |
| 20260505074502 | 21 | 164 | 1.6 | 8.0 | 0.00 | 0.00 | 0.00 | 87 | 1003.5 |
| 20260505074404 | 21 | 172 | 1.6 | 8.0 | 0.00 | 0.00 | 0.00 | 87 | 1003.5 |
| 20260505074303 | 21 | 171 | 3.2 | 8.0 | 0.00 | 0.00 | 0.00 | 87 | 1003.5 |
| 20260505074204 | 21 | 172 | 3.2 | 8.0 | 0.00 | 0.00 | 0.00 | 87 | 1003.5 |
| 20260505074103 | 21 | 168 | 3.2 | 8.0 | 0.00 | 0.00 | 0.00 | 87 | 1003.6 |
| 20260505074004 | 21 | 161 | 3.2 | 8.0 | 0.00 | 0.00 | 0.00 | 87 | 1003.5 |
| 20260505073902 | 21 | 165 | 3.2 | 8.0 | 0.00 | 0.00 | 0.00 | 87 | 1003.5 |
| 20260505073802 | 21 | 217 | 1.6 | 8.0 | 0.00 | 0.00 | 0.00 | 87 | 1003.5 |
| 20260505073705 | 21 | 151 | 3.2 | 8.0 | 0.00 | 0.00 | 0.00 | 87 | 1003.5 |
| 20260505073602 | 21 | 151 | 3.2 | 8.0 | 0.00 | 0.00 | 0.00 | 87 | 1003.5 |
| 20260505073501 | 21 | 149 | 3.2 | 8.0 | 0.00 | 0.00 | 0.00 | 86 | 1003.4 |
| 20260505073402 | 21 | 178 | 3.2 | 6.4 | 0.00 | 0.00 | 0.00 | 86 | 1003.4 |
| 20260505073303 | 21 | 144 | 3.2 | 6.4 | 0.00 | 0.00 | 0.00 | 86 | 1003.5 |
| 20260505073204 | 21 | 141 | 3.2 | 6.4 | 0.00 | 0.00 | 0.00 | 86 | 1003.4 |
| 20260505073102 | 21 | 176 | 1.6 | 6.4 | 0.00 | 0.00 | 0.00 | 86 | 1003.4 |
| 20260505073004 | 21 | 172 | 1.6 | 6.4 | 0.00 | 0.00 | 0.00 | 86 | 1003.5 |
| 20260505072903 | 21 | 169 | 3.2 | 6.4 | 0.00 | 0.00 | 0.00 | 86 | 1003.4 |
| 20260505072803 | 21 | 171 | 3.2 | 6.4 | 0.00 | 0.00 | 0.00 | 86 | 1003.4 |
| 20260505072702 | 21 | 162 | 1.6 | 6.4 | 0.00 | 0.00 | 0.00 | 86 | 1003.5 |
| 20260505072603 | 21 | 162 | 3.2 | 6.4 | 0.00 | 0.00 | 0.00 | 86 | 1003.5 |
| 20260505072504 | 21 | 162 | 3.2 | 6.4 | 0.00 | 0.00 | 0.00 | 86 | 1003.5 |
| 20260505072403 | 21 | 162 | 1.6 | 6.4 | 0.00 | 0.00 | 0.00 | 86 | 1003.5 |
| 20260505072305 | 21 | 162 | 1.6 | 6.4 | 0.00 | 0.00 | 0.00 | 86 | 1003.5 |
| 20260505072202 | 21 | 165 | 1.6 | 9.7 | 0.00 | 0.00 | 0.00 | 86 | 1003.6 |
| 20260505072103 | 21 | 166 | 1.6 | 9.7 | 0.00 | 0.00 | 0.00 | 86 | 1003.6 |
| 20260505072004 | 21 | 169 | 1.6 | 9.7 | 0.00 | 0.00 | 0.00 | 86 | 1003.6 |
| 20260505071903 | 21 | 125 | 1.6 | 9.7 | 0.00 | 0.00 | 0.00 | 86 | 1003.6 |
| 20260505071803 | 21 | 125 | 1.6 | 9.7 | 0.00 | 0.00 | 0.00 | 86 | 1003.5 |
| 20260505071702 | 21 | 124 | 3.2 | 9.7 | 0.00 | 0.00 | 0.00 | 86 | 1003.6 |
| 20260505071603 | 21 | 124 | 3.2 | 9.7 | 0.00 | 0.00 | 0.00 | 86 | 1003.5 |
| 20260505071503 | 21 | 157 | 1.6 | 9.7 | 0.00 | 0.00 | 0.00 | 86 | 1003.5 |
| 20260505071402 | 21 | 157 | 3.2 | 9.7 | 0.00 | 0.00 | 0.00 | 86 | 1003.5 |
| 20260505071304 | 21 | 155 | 3.2 | 9.7 | 0.00 | 0.00 | 0.00 | 86 | 1003.5 |
| 20260505071203 | 21 | 155 | 3.2 | 9.7 | 0.00 | 0.00 | 0.00 | 86 | 1003.6 |
| 20260505071105 | 21 | 155 | 4.8 | 9.7 | 0.00 | 0.00 | 0.00 | 86 | 1003.6 |
| 20260505071002 | 21 | 158 | 3.2 | 8.0 | 0.00 | 0.00 | 0.00 | 86 | 1003.6 |
| 20260505070902 | 21 | 155 | 3.2 | 8.0 | 0.00 | 0.00 | 0.00 | 86 | 1003.7 |
| 20260505070804 | 21 | 185 | 3.2 | 8.0 | 0.00 | 0.00 | 0.00 | 86 | 1003.6 |
| 20260505070703 | 21 | 137 | 4.8 | 8.0 | 0.00 | 0.00 | 0.00 | 86 | 1003.6 |
| 20260505070604 | 21 | 151 | 3.2 | 8.0 | 0.00 | 0.00 | 0.00 | 86 | 1003.6 |
| 20260505070504 | 21 | 162 | 3.2 | 6.4 | 0.00 | 0.00 | 0.00 | 86 | 1003.6 |
| 20260505070403 | 21 | 185 | 1.6 | 11.3 | 0.00 | 0.00 | 0.00 | 86 | 1003.6 |
| 20260505070303 | 21 | 175 | 1.6 | 11.3 | 0.00 | 0.00 | 0.00 | 85 | 1003.6 |
| 20260505070204 | 21 | 175 | 1.6 | 11.3 | 0.00 | 0.00 | 0.00 | 85 | 1003.6 |
| 20260505070002 | 21 | 166 | 1.6 | 11.3 | 0.00 | 0.00 | 0.00 | 86 | 1003.5 |
| 20260505065902 | 21 | 165 | 1.6 | 11.3 | 0.00 | 0.00 | 0.00 | 86 | 1003.6 |
| 20260505065803 | 21 | 172 | 3.2 | 11.3 | 0.00 | 0.00 | 0.00 | 85 | 1003.7 |
| 20260505065703 | 21 | 149 | 3.2 | 11.3 | 0.00 | 0.00 | 0.00 | 85 | 1003.6 |
| 20260505065602 | 21 | 176 | 4.8 | 11.3 | 0.00 | 0.00 | 0.00 | 85 | 1003.6 |
| 20260505065504 | 21 | 171 | 3.2 | 11.3 | 0.00 | 0.00 | 0.00 | 85 | 1003.7 |
| 20260505065402 | 21 | 162 | 3.2 | 9.7 | 0.00 | 0.00 | 0.00 | 85 | 1003.8 |
| 20260505065304 | 21 | 155 | 3.2 | 9.7 | 0.00 | 0.00 | 0.00 | 85 | 1003.8 |
| 20260505065203 | 21 | 161 | 3.2 | 9.7 | 0.00 | 0.00 | 0.00 | 85 | 1003.8 |
| 20260505065102 | 21 | 155 | 4.8 | 9.7 | 0.00 | 0.00 | 0.00 | 85 | 1003.8 |
| 20260505065004 | 21 | 183 | 6.4 | 9.7 | 0.00 | 0.00 | 0.00 | 85 | 1003.8 |
| 20260505064903 | 21 | 171 | 4.8 | 9.7 | 0.00 | 0.00 | 0.00 | 85 | 1003.8 |
| 20260505064803 | 21 | 134 | 4.8 | 9.7 | 0.00 | 0.00 | 0.00 | 85 | 1003.9 |
| 20260505064703 | 21 | 169 | 4.8 | 9.7 | 0.00 | 0.00 | 0.00 | 85 | 1003.9 |
| 20260505064602 | 21 | 140 | 3.2 | 9.7 | 0.00 | 0.00 | 0.00 | 85 | 1003.9 |
| 20260505064504 | 21 | 157 | 1.6 | 9.7 | 0.00 | 0.00 | 0.00 | 85 | 1003.9 |
| 20260505064402 | 21 | 176 | 1.6 | 9.7 | 0.00 | 0.00 | 0.00 | 85 | 1004.0 |
| 20260505064303 | 21 | 169 | 1.6 | 9.7 | 0.00 | 0.00 | 0.00 | 85 | 1003.9 |
| 20260505064204 | 21 | 192 | 3.2 | 9.7 | 0.00 | 0.00 | 0.00 | 85 | 1004.0 |
| 20260505064102 | 21 | 155 | 3.2 | 9.7 | 0.00 | 0.00 | 0.00 | 85 | 1004.0 |
| 20260505064004 | 21 | 134 | 4.8 | 9.7 | 0.00 | 0.00 | 0.00 | 85 | 1004.0 |
| 20260505063904 | 21 | 168 | 4.8 | 9.7 | 0.00 | 0.00 | 0.00 | 85 | 1003.9 |
| 20260505063803 | 21 | 202 | 6.4 | 9.7 | 0.00 | 0.00 | 0.00 | 85 | 1004.0 |
| 20260505063704 | 21 | 135 | 6.4 | 9.7 | 0.00 | 0.00 | 0.00 | 85 | 1004.0 |
| 20260505063603 | 21 | 159 | 4.8 | 8.0 | 0.00 | 0.00 | 0.00 | 85 | 1004.1 |
| 20260505063505 | 21 | 179 | 3.2 | 8.0 | 0.00 | 0.00 | 0.00 | 85 | 1004.0 |
| 20260505063403 | 21 | 157 | 4.8 | 8.0 | 0.00 | 0.00 | 0.00 | 85 | 1004.0 |
| 20260505063256 | 21 | 172 | 4.8 | 8.0 | 0.00 | 0.00 | 0.00 | 85 | 1004.0 |
| 20260505063155 | 21 | 147 | 6.4 | 8.0 | 0.00 | 0.00 | 0.00 | 85 | 1004.0 |
| 20260505063056 | 21 | 158 | 6.4 | 8.0 | 0.00 | 0.00 | 0.00 | 85 | 1004.0 |
| 20260505062952 | 21 | 140 | 4.8 | 8.0 | 0.00 | 0.00 | 0.00 | 85 | 1004.0 |
| 20260505062853 | 21 | 148 | 4.8 | 6.4 | 0.00 | 0.00 | 0.00 | 85 | 1004.0 |
| 20260505062749 | 21 | 144 | 4.8 | 6.4 | 0.00 | 0.00 | 0.00 | 85 | 1004.1 |
| 20260505062649 | 21 | 155 | 3.2 | 6.4 | 0.00 | 0.00 | 0.00 | 85 | 1004.1 |
| 20260505062536 | 21 | 157 | 3.2 | 8.0 | 0.00 | 0.00 | 0.00 | 84 | 1004.1 |
| 20260505062433 | 21 | 123 | 3.2 | 8.0 | 0.00 | 0.00 | 0.00 | 84 | 1004.1 |
| 20260505062330 | 21 | 178 | 3.2 | 8.0 | 0.00 | 0.00 | 0.00 | 84 | 1004.2 |
| 20260505062231 | 21 | 141 | 3.2 | 8.0 | 0.00 | 0.00 | 0.00 | 84 | 1004.2 |
| 20260505062132 | 21 | 130 | 3.2 | 8.0 | 0.00 | 0.00 | 0.00 | 84 | 1004.1 |
| 20260505062033 | 21 | 182 | 3.2 | 9.7 | 0.00 | 0.00 | 0.00 | 84 | 1004.1 |
| 20260505061933 | 21 | 165 | 4.8 | 9.7 | 0.00 | 0.00 | 0.00 | 84 | 1004.1 |
| 20260505061831 | 21 | 155 | 4.8 | 9.7 | 0.00 | 0.00 | 0.00 | 84 | 1004.2 |
| 20260505061733 | 21 | 157 | 3.2 | 9.7 | 0.00 | 0.00 | 0.00 | 84 | 1004.2 |
| 20260505061631 | 21 | 141 | 3.2 | 9.7 | 0.00 | 0.00 | 0.00 | 84 | 1004.2 |
| 20260505061533 | 21 | 141 | 3.2 | 11.3 | 0.00 | 0.00 | 0.00 | 84 | 1004.2 |
| 20260505061433 | 21 | 114 | 4.8 | 11.3 | 0.00 | 0.00 | 0.00 | 84 | 1004.3 |
| 20260505061333 | 21 | 151 | 4.8 | 11.3 | 0.00 | 0.00 | 0.00 | 84 | 1004.3 |
| 20260505061232 | 21 | 155 | 4.8 | 11.3 | 0.00 | 0.00 | 0.00 | 84 | 1004.2 |
| 20260505061130 | 21 | 128 | 4.8 | 11.3 | 0.00 | 0.00 | 0.00 | 84 | 1004.2 |
| 20260505061032 | 21 | 127 | 3.2 | 11.3 | 0.00 | 0.00 | 0.00 | 84 | 1004.3 |
| 20260505060930 | 21 | 157 | 3.2 | 11.3 | 0.00 | 0.00 | 0.00 | 84 | 1004.3 |
| 20260505060832 | 21 | 147 | 4.8 | 11.3 | 0.00 | 0.00 | 0.00 | 84 | 1004.5 |
| 20260505060732 | 21 | 151 | 6.4 | 11.3 | 0.00 | 0.00 | 0.00 | 84 | 1004.5 |
| 20260505060632 | 21 | 120 | 4.8 | 11.3 | 0.00 | 0.00 | 0.00 | 84 | 1004.5 |
| 20260505060532 | 21 | 169 | 4.8 | 9.7 | 0.00 | 0.00 | 0.00 | 84 | 1004.6 |